Data Cleaning

library(tidyverse)
## ── Attaching core tidyverse packages ──────────────────────── tidyverse 2.0.0 ──
## ✔ dplyr     1.2.1     ✔ readr     2.2.0
## ✔ forcats   1.0.1     ✔ stringr   1.6.0
## ✔ ggplot2   4.0.3     ✔ tibble    3.3.1
## ✔ lubridate 1.9.5     ✔ tidyr     1.3.2
## ✔ purrr     1.2.2     
## ── Conflicts ────────────────────────────────────────── tidyverse_conflicts() ──
## ✖ dplyr::filter() masks stats::filter()
## ✖ dplyr::lag()    masks stats::lag()
## ℹ Use the conflicted package (<http://conflicted.r-lib.org/>) to force all conflicts to become errors
library(naniar)
library(lubridate)

# Load data
df_mfg <- read.csv("02_MANUFACTURING_QUALITY.csv")

# Profiling singkat
glimpse(df_mfg)
## Rows: 1,000
## Columns: 7
## $ production_line <int> 3, 4, 3, 2, 2, 1, 1, 2, 5, 5, 4, 1, 4, 1, 2, 5, 5, 2, …
## $ shift           <chr> "Night", "Morning", "Afternoon", "Afternoon", "Night",…
## $ timestamp       <chr> "2024-01-01 00:00:00", "2024-01-01 01:00:00", "2024-01…
## $ weight          <dbl> 508.6619, 505.0686, 503.5621, 500.5776, 503.8322, 512.…
## $ defect_count    <int> 0, 3, 2, 6, 2, 2, 4, 3, 1, 2, 2, 3, 2, 1, 0, 2, 2, 1, …
## $ temperature     <dbl> 32.74513, 26.56423, 34.52342, 34.31234, 31.59914, 33.9…
## $ humidity        <dbl> 40.72798, 72.08712, 77.87584, 41.28258, 41.82324, 53.7…
gg_miss_var(df_mfg) # Cek kolom mana yang paling banyak NA

#panggil dataset
df_mfg
##      production_line     shift           timestamp   weight defect_count
## 1                  3     Night 2024-01-01 00:00:00 508.6619            0
## 2                  4   Morning 2024-01-01 01:00:00 505.0686            3
## 3                  3 Afternoon 2024-01-01 02:00:00 503.5621            2
## 4                  2 Afternoon 2024-01-01 03:00:00 500.5776            6
## 5                  2     Night 2024-01-01 04:00:00 503.8322            2
## 6                  1 Afternoon 2024-01-01 05:00:00 512.1443            2
## 7                  1     Night 2024-01-01 06:00:00 498.5665            4
## 8                  2     Night 2024-01-01 07:00:00 503.1050            3
## 9                  5 Afternoon 2024-01-01 08:00:00 510.3784            1
## 10                 5     Night 2024-01-01 09:00:00 508.7469            2
## 11                 4 Afternoon 2024-01-01 10:00:00 511.0000            2
## 12                 1   Morning 2024-01-01 11:00:00 505.6108            3
## 13                 4   Morning 2024-01-01 12:00:00 506.3888            2
## 14                 1 Afternoon 2024-01-01 13:00:00 505.4015            1
## 15                 2 Afternoon 2024-01-01 14:00:00 510.3534            0
## 16                 5 Afternoon 2024-01-01 15:00:00 506.0193            2
## 17                 5 Afternoon 2024-01-01 16:00:00 508.4065            2
## 18                 2   Morning 2024-01-01 17:00:00 505.5448            1
## 19                 4     Night 2024-01-01 18:00:00 498.9028            1
## 20                 4     Night 2024-01-01 19:00:00 501.4228            0
## 21                 3   Morning 2024-01-01 20:00:00 502.0454            4
## 22                 1     Night 2024-01-01 21:00:00 450.0000            1
## 23                 4   Morning 2024-01-01 22:00:00 511.2352            0
## 24                 2     Night 2024-01-01 23:00:00 506.0872            1
## 25                 4 Afternoon 2024-01-02 00:00:00 504.6826            1
## 26                 5 Afternoon 2024-01-02 01:00:00 508.7157            2
## 27                 1 Afternoon 2024-01-02 02:00:00 500.6443            3
## 28                 3   Morning 2024-01-02 03:00:00 503.5309            3
## 29                 1   Morning 2024-01-02 04:00:00 503.0880            2
## 30                 5     Night 2024-01-02 05:00:00 506.1941            3
## 31                 5     Night 2024-01-02 06:00:00 507.6875            3
## 32                 5     Night 2024-01-02 07:00:00 506.4145            3
## 33                 5   Morning 2024-01-02 08:00:00 506.4619            2
## 34                 2     Night 2024-01-02 09:00:00 503.9167            2
## 35                 3 Afternoon 2024-01-02 10:00:00       NA            1
## 36                 5     Night 2024-01-02 11:00:00 502.4805            3
## 37                 5 Afternoon 2024-01-02 12:00:00 507.0224            2
## 38                 4   Morning 2024-01-02 13:00:00 503.4982            2
## 39                 3 Afternoon 2024-01-02 14:00:00 501.6355            1
## 40                 1 Afternoon 2024-01-02 15:00:00 505.1135            0
## 41                 3 Afternoon 2024-01-02 16:00:00 499.2607            2
## 42                 3   Morning 2024-01-02 17:00:00 509.4231            1
## 43                 3   Morning 2024-01-02 18:00:00 507.3913            2
## 44                 5   Morning 2024-01-02 19:00:00 506.0109            1
## 45                 5   Morning 2024-01-02 20:00:00 500.1289            2
## 46                 2     Night 2024-01-02 21:00:00 502.8994            1
## 47                 1   Morning 2024-01-02 22:00:00 505.1217            1
## 48                 4 Afternoon 2024-01-02 23:00:00 504.2107            3
## 49                 3   Morning 2024-01-03 00:00:00 499.9343            3
## 50                 1     Night 2024-01-03 01:00:00 501.0507            2
## 51                 1     Night 2024-01-03 02:00:00 504.1507            2
## 52                 2     Night 2024-01-03 03:00:00 501.1501            1
## 53                 4 Afternoon 2024-01-03 04:00:00 509.1142            4
## 54                 3   Morning 2024-01-03 05:00:00 506.4836            2
## 55                 4   Morning 2024-01-03 06:00:00 502.5896            1
## 56                 2   Morning 2024-01-03 07:00:00 508.5075            5
## 57                 5 Afternoon 2024-01-03 08:00:00 507.9031            6
## 58                 1 Afternoon 2024-01-03 09:00:00 505.8669            4
## 59                 3     Night 2024-01-03 10:00:00 504.8812            3
## 60                 5     Night 2024-01-03 11:00:00 504.1046            0
## 61                 2   Morning 2024-01-03 12:00:00 503.3802            1
## 62                 4 Afternoon 2024-01-03 13:00:00 500.9896            0
## 63                 1 Afternoon 2024-01-03 14:00:00 509.5850            2
## 64                 3   Morning 2024-01-03 15:00:00 503.4385            0
## 65                 5   Morning 2024-01-03 16:00:00 505.0846            2
## 66                 5     Night 2024-01-03 17:00:00 502.2693            2
## 67                 1     Night 2024-01-03 18:00:00 504.2216            3
## 68                 4     Night 2024-01-03 19:00:00 513.5523            4
## 69                 2   Morning 2024-01-03 20:00:00 502.8220            2
## 70                 4   Morning 2024-01-03 21:00:00 509.3458            2
## 71                 4     Night 2024-01-03 22:00:00 504.9166            3
## 72                 4     night 2024-01-03 23:00:00 507.0398            1
## 73                 1 Afternoon 2024-01-04 00:00:00 508.7337            2
## 74                 1 Afternoon 2024-01-04 01:00:00 505.8168            2
## 75                 2     Night 2024-01-04 02:00:00 503.9449            3
## 76                 4     Night 2024-01-04 03:00:00 504.4417            3
## 77                 1 Afternoon 2024-01-04 04:00:00 504.5427            3
## 78                 2     Night 2024-01-04 05:00:00 510.5931            2
## 79                 2 Afternoon 2024-01-04 06:00:00 500.5476            3
## 80                 4 Afternoon 2024-01-04 07:00:00 499.6878            1
## 81                 3 Afternoon 2024-01-04 08:00:00 499.8878            2
## 82                 4   Morning 2024-01-04 09:00:00 511.0000            2
## 83                 3   Morning 2024-01-04 10:00:00 507.1002            0
## 84                 2     Night 2024-01-04 11:00:00 507.2843            3
## 85                 1 Afternoon 2024-01-04 12:00:00 503.1775            3
## 86                 5   Morning 2024-01-04 13:00:00 504.9145            4
## 87                 2     Night 2024-01-04 14:00:00 501.6511            0
## 88                 1     Night 2024-01-04 15:00:00 501.9293            0
## 89                 2     Night 2024-01-04 16:00:00 506.7396            2
## 90                 4     Night 2024-01-04 17:00:00 508.1431            1
## 91                 3     Night 2024-01-04 18:00:00 503.5695            4
## 92                 2 Afternoon 2024-01-04 19:00:00 509.9050            2
## 93                 1     Night 2024-01-04 20:00:00 507.8968            3
## 94                 4 Afternoon 2024-01-04 21:00:00 509.7752            0
## 95                 5   Morning 2024-01-04 22:00:00 504.0972            2
## 96                 4     Night 2024-01-04 23:00:00 509.5621            1
## 97                 3   Morning 2024-01-05 00:00:00 511.5386            1
## 98                 4 Afternoon 2024-01-05 01:00:00 503.7624            0
## 99                 5 Afternoon 2024-01-05 02:00:00 560.0000            1
## 100                1   Morning 2024-01-05 03:00:00 502.1568            1
## 101                2     Night 2024-01-05 04:00:00 450.0000            1
## 102                3     Night 2024-01-05 05:00:00 501.6023            0
## 103                5   Morning 2024-01-05 06:00:00 502.5656            3
## 104                3   Morning 2024-01-05 07:00:00 505.8242            1
## 105                4   Morning 2024-01-05 08:00:00 502.6924            0
## 106                3     Night 2024-01-05 09:00:00 505.7325            1
## 107                5     Night 2024-01-05 10:00:00 505.7945            2
## 108                2     Night 2024-01-05 11:00:00 503.5896            3
## 109                2   Morning 2024-01-05 12:00:00 499.0000            2
## 110                3     Night 2024-01-05 13:00:00 503.4163            3
## 111                1 Afternoon 2024-01-05 14:00:00 504.0678            1
## 112                3   Morning 2024-01-05 15:00:00 502.5734            1
## 113                4     Night 2024-01-05 16:00:00 505.2523            2
## 114                2   Morning 2024-01-05 17:00:00 503.1984            1
## 115                2 Afternoon 2024-01-05 18:00:00 501.5018            2
## 116                2 Afternoon 2024-01-05 19:00:00 506.7803            1
## 117                1   Morning 2024-01-05 20:00:00 506.8819            2
## 118                1   Morning 2024-01-05 21:00:00 508.3351            1
## 119                5 Afternoon 2024-01-05 22:00:00 501.9268            4
## 120                3   Morning 2024-01-05 23:00:00 503.5572            2
## 121                3 Afternoon 2024-01-06 00:00:00 505.6915            1
## 122                4 Afternoon 2024-01-06 01:00:00 503.4939            3
## 123                2     Night 2024-01-06 02:00:00 506.7127            2
## 124                1   Morning 2024-01-06 03:00:00 506.4938            1
## 125                4   Morning 2024-01-06 04:00:00 506.4379            3
## 126                4     Night 2024-01-06 05:00:00 509.3790            3
## 127                1 afternoon 2024-01-06 06:00:00 506.9322            0
## 128                3   Morning 2024-01-06 07:00:00 505.4617            1
## 129                2     Night 2024-01-06 08:00:00 504.4194            0
## 130                3     Night 2024-01-06 09:00:00 504.6284            0
## 131                4   Morning 2024-01-06 10:00:00 501.8074            3
## 132                2     Night 2024-01-06 11:00:00 499.7029            1
## 133                5 Afternoon 2024-01-06 12:00:00 506.3913            3
## 134                4     Night 2024-01-06 13:00:00 508.6709            0
## 135                3 Afternoon 2024-01-06 14:00:00 504.0097            2
## 136                3 Afternoon 2024-01-06 15:00:00 509.7613            4
## 137                3   Morning 2024-01-06 16:00:00 504.4705            0
## 138                1     Night 2024-01-06 17:00:00 499.1387            0
## 139                4 Afternoon 2024-01-06 18:00:00 507.7547            1
## 140                2 Afternoon 2024-01-06 19:00:00 503.5621            2
## 141                3     Night 2024-01-06 20:00:00 508.0263            2
## 142                3 Afternoon 2024-01-06 21:00:00 501.1674            2
## 143                1     Night 2024-01-06 22:00:00 506.2361            1
## 144                2   Morning 2024-01-06 23:00:00 502.5986            3
## 145                4 Afternoon 2024-01-07 00:00:00 505.6042            2
## 146                5 Afternoon 2024-01-07 01:00:00 507.2998            3
## 147                1     Night 2024-01-07 02:00:00 506.6032            1
## 148                4     Night 2024-01-07 03:00:00 505.2081            0
## 149                5     Night 2024-01-07 04:00:00 500.8646            3
## 150                3     Night 2024-01-07 05:00:00 507.1910            0
## 151                3 Afternoon 2024-01-07 06:00:00 508.0943            1
## 152                2   Morning 2024-01-07 07:00:00 501.8710            1
## 153                5   Morning 2024-01-07 08:00:00 502.3119            0
## 154                3   Morning 2024-01-07 09:00:00 508.2207            2
## 155                3   Morning 2024-01-07 10:00:00 504.3747            1
## 156                2     Night 2024-01-07 11:00:00 502.3897            2
## 157                4 Afternoon 2024-01-07 12:00:00 505.8177            3
## 158                3 Afternoon 2024-01-07 13:00:00 503.0844            5
## 159                1 afternoon 2024-01-07 14:00:00 505.4831            2
## 160                1     Night 2024-01-07 15:00:00 503.7604            3
## 161                4 Afternoon 2024-01-07 16:00:00 504.0175            2
## 162                5     Night 2024-01-07 17:00:00 508.3312            3
## 163                2 Afternoon 2024-01-07 18:00:00 497.5944            1
## 164                1   Morning 2024-01-07 19:00:00 506.6643            2
## 165                1     Night 2024-01-07 20:00:00 507.8364            0
## 166                4 Afternoon 2024-01-07 21:00:00 503.1340            1
## 167                5   Morning 2024-01-07 22:00:00 507.8133            0
## 168                5   Morning 2024-01-07 23:00:00 502.1229            3
## 169                4   Morning 2024-01-08 00:00:00 503.0200            1
## 170                1     Night 2024-01-08 01:00:00 502.6745            2
## 171                2     Night 2024-01-08 02:00:00 507.8539            1
## 172                1 Afternoon 2024-01-08 03:00:00 499.7652            0
## 173                5   Morning 2024-01-08 04:00:00 509.9204            2
## 174                1 Afternoon 2024-01-08 05:00:00 504.0852            2
## 175                2 afternoon 2024-01-08 06:00:00 506.8447            2
## 176                3   Morning 2024-01-08 07:00:00 506.5861            1
## 177                1 Afternoon 2024-01-08 08:00:00 505.4537            3
## 178                4     Night 2024-01-08 09:00:00 503.1979            4
## 179                3 Afternoon 2024-01-08 10:00:00 508.7271            2
## 180                4   Morning 2024-01-08 11:00:00 503.4554            3
## 181                4     Night 2024-01-08 12:00:00 502.8063            2
## 182                4     Night 2024-01-08 13:00:00 507.6331            6
## 183                1 Afternoon 2024-01-08 14:00:00 505.4372            5
## 184                5 Afternoon 2024-01-08 15:00:00 509.0735            1
## 185                3     Night 2024-01-08 16:00:00 504.8120            1
## 186                2 Afternoon 2024-01-08 17:00:00 503.0474            3
## 187                5   Morning 2024-01-08 18:00:00 505.8242            3
## 188                1 Afternoon 2024-01-08 19:00:00 503.6571            6
## 189                4 Afternoon 2024-01-08 20:00:00 503.1342            2
## 190                2     Night 2024-01-08 21:00:00 507.4957            1
## 191                3 Afternoon 2024-01-08 22:00:00 510.4947            0
## 192                5 Afternoon 2024-01-08 23:00:00 504.2606            2
## 193                5 Afternoon 2024-01-09 00:00:00 502.0758            3
## 194                2   Morning 2024-01-09 01:00:00 504.5396            2
## 195                1 Afternoon 2024-01-09 02:00:00 506.5444            3
## 196                3   Morning 2024-01-09 03:00:00 505.7724            1
## 197                2   Morning 2024-01-09 04:00:00 508.5827            1
## 198                4   Morning 2024-01-09 05:00:00 506.9953            3
## 199                3   Morning 2024-01-09 06:00:00 501.6898            0
## 200                5     Night 2024-01-09 07:00:00 503.5200            1
## 201                2   Morning 2024-01-09 08:00:00 500.8575            3
## 202                5 Afternoon 2024-01-09 09:00:00 508.4340            2
## 203                5   Morning 2024-01-09 10:00:00 499.0243            1
## 204                5 Afternoon 2024-01-09 11:00:00 501.1500            1
## 205                1   Morning 2024-01-09 12:00:00 503.4646            6
## 206                5     Night 2024-01-09 13:00:00 506.6918            1
## 207                4   Morning 2024-01-09 14:00:00 503.4350            2
## 208                4   Morning 2024-01-09 15:00:00 503.9043            1
## 209                3     Night 2024-01-09 16:00:00 503.9634            1
## 210                5   Morning 2024-01-09 17:00:00 505.5183            2
## 211                5 Afternoon 2024-01-09 18:00:00 501.3385            2
## 212                2   Morning 2024-01-09 19:00:00 502.1585            1
## 213                1   Morning 2024-01-09 20:00:00 510.0428            2
## 214                3   Morning 2024-01-09 21:00:00 506.2072            1
## 215                5     Night 2024-01-09 22:00:00 507.2823            3
## 216                2   Morning 2024-01-09 23:00:00 505.1741            3
## 217                1   Morning 2024-01-10 00:00:00 504.5792            3
## 218                3 Afternoon 2024-01-10 01:00:00 506.3714            3
## 219                3   Morning 2024-01-10 02:00:00 507.1828            4
## 220                5   Morning 2024-01-10 03:00:00 507.5382            3
## 221                3   Morning 2024-01-10 04:00:00 504.6203            0
## 222                2   Morning 2024-01-10 05:00:00 507.8661            0
## 223                3 Afternoon 2024-01-10 06:00:00 497.6013            2
## 224                4 Afternoon 2024-01-10 07:00:00 507.6769            3
## 225                2     Night 2024-01-10 08:00:00 503.7193            1
## 226                1   Morning 2024-01-10 09:00:00 506.6601            2
## 227                1     Night 2024-01-10 10:00:00 503.0520            2
## 228                5     Night 2024-01-10 11:00:00 501.0199            3
## 229                5   Morning 2024-01-10 12:00:00 506.0191            0
## 230                4 Afternoon 2024-01-10 13:00:00 500.4954            1
## 231                1 Afternoon 2024-01-10 14:00:00 503.8010            1
## 232                1   Morning 2024-01-10 15:00:00 502.5627            1
## 233                1   Morning 2024-01-10 16:00:00 504.4749            0
## 234                1 Afternoon 2024-01-10 17:00:00 507.3916            2
## 235                3   Morning 2024-01-10 18:00:00 503.5305            0
## 236                2   Morning 2024-01-10 19:00:00 505.9437            0
## 237                2   Morning 2024-01-10 20:00:00 507.2180            2
## 238                4 Afternoon 2024-01-10 21:00:00 503.1782            4
## 239                3     Night 2024-01-10 22:00:00 503.2217            1
## 240                1     Night 2024-01-10 23:00:00 509.1080            3
## 241                1   Morning 2024-01-11 00:00:00 504.7618            1
## 242                5 Afternoon 2024-01-11 01:00:00 506.5274            2
## 243                5   Morning 2024-01-11 02:00:00 506.5047            2
## 244                4 Afternoon 2024-01-11 03:00:00 501.4060            0
## 245                1   Morning 2024-01-11 04:00:00 502.7174            3
## 246                4 Afternoon 2024-01-11 05:00:00 506.1260            2
## 247                3 Afternoon 2024-01-11 06:00:00 498.7981            7
## 248                2     Night 2024-01-11 07:00:00 504.3661            1
## 249                1   Morning 2024-01-11 08:00:00 502.4041            2
## 250                3     Night 2024-01-11 09:00:00       NA            1
## 251                1     Night 2024-01-11 10:00:00 506.0383            1
## 252                5 Afternoon 2024-01-11 11:00:00 508.5737            1
## 253                4   Morning 2024-01-11 12:00:00 504.8826            6
## 254                5 Afternoon 2024-01-11 13:00:00 504.6583            0
## 255                2 Afternoon 2024-01-11 14:00:00 504.0852            1
## 256                5 Afternoon 2024-01-11 15:00:00 503.4908            0
## 257                1   Morning 2024-01-11 16:00:00 513.0540            6
## 258                5   Morning 2024-01-11 17:00:00 507.4215            1
## 259                1 Afternoon 2024-01-11 18:00:00 501.8014            2
## 260                2   Morning 2024-01-11 19:00:00 512.9179            4
## 261                5 Afternoon 2024-01-11 20:00:00 503.7851            0
## 262                4   Morning 2024-01-11 21:00:00 505.9635            2
## 263                4   Morning 2024-01-11 22:00:00 507.8188            2
## 264                4     Night 2024-01-11 23:00:00 500.3861            1
## 265                5 Afternoon 2024-01-12 00:00:00 502.5180            4
## 266                5     Night 2024-01-12 01:00:00 509.9445            2
## 267                5     Night 2024-01-12 02:00:00 504.3255            2
## 268                1 Afternoon 2024-01-12 03:00:00 511.0000            1
## 269                2 Afternoon 2024-01-12 04:00:00 503.6396            1
## 270                4   Morning 2024-01-12 05:00:00 504.7148            6
## 271                1 Afternoon 2024-01-12 06:00:00 510.3558            3
## 272                4     Night 2024-01-12 07:00:00 506.3125            2
## 273                1     Night 2024-01-12 08:00:00 503.9655            4
## 274                5 Afternoon 2024-01-12 09:00:00 502.9499            0
## 275                4     Night 2024-01-12 10:00:00 503.2244            0
## 276                5   Morning 2024-01-12 11:00:00 508.7247            2
## 277                4     Night 2024-01-12 12:00:00 507.2965            2
## 278                3   Morning 2024-01-12 13:00:00 501.5540            3
## 279                1     Night 2024-01-12 14:00:00 505.2615            2
## 280                3   Morning 2024-01-12 15:00:00 504.7996            4
## 281                1   Morning 2024-01-12 16:00:00 505.9483            6
## 282                2 Afternoon 2024-01-12 17:00:00 503.1893            0
## 283                4   Morning 2024-01-12 18:00:00 508.2934            2
## 284                2 Afternoon 2024-01-12 19:00:00 504.9960            0
## 285                2     Night 2024-01-12 20:00:00 506.1203            1
## 286                1     night 2024-01-12 21:00:00 502.6459            0
## 287                3     Night 2024-01-12 22:00:00 499.0000            1
## 288                5   Morning 2024-01-12 23:00:00 512.9725            4
## 289                1     Night 2024-01-13 00:00:00 510.4002            2
## 290                5     Night 2024-01-13 01:00:00 504.7910            5
## 291                2 Afternoon 2024-01-13 02:00:00 509.5990            2
## 292                5 Afternoon 2024-01-13 03:00:00 508.6382            3
## 293                3     Night 2024-01-13 04:00:00 503.1244            1
## 294                1     Night 2024-01-13 05:00:00 502.8252            5
## 295                3   Morning 2024-01-13 06:00:00 507.0060            2
## 296                3   Morning 2024-01-13 07:00:00 505.7802            0
## 297                1     Night 2024-01-13 08:00:00 503.7940            4
## 298                3 Afternoon 2024-01-13 09:00:00 507.1637            1
## 299                4     Night 2024-01-13 10:00:00 500.6726            2
## 300                4   Morning 2024-01-13 11:00:00 505.3450            5
## 301                4 Afternoon 2024-01-13 12:00:00 501.2832            2
## 302                5 Afternoon 2024-01-13 13:00:00 501.3820            2
## 303                3   Morning 2024-01-13 14:00:00 502.8797            5
## 304                1     Night 2024-01-13 15:00:00 506.0899            0
## 305                1     Night 2024-01-13 16:00:00 502.9743            4
## 306                5     Night 2024-01-13 17:00:00 501.3457            3
## 307                1   Morning 2024-01-13 18:00:00 506.4317            5
## 308                4 Afternoon 2024-01-13 19:00:00 509.4782            0
## 309                3   Morning 2024-01-13 20:00:00 506.9166            2
## 310                1     Night 2024-01-13 21:00:00 510.4054            1
## 311                1   Morning 2024-01-13 22:00:00 509.2275            5
## 312                2 Afternoon 2024-01-13 23:00:00 503.5377            3
## 313                2   Morning 2024-01-14 00:00:00 506.8965            1
## 314                2     Night 2024-01-14 01:00:00 504.7251            2
## 315                3 Afternoon 2024-01-14 02:00:00 508.1863            0
## 316                4   Morning 2024-01-14 03:00:00 504.7246            1
## 317                4   Morning 2024-01-14 04:00:00 502.6339            5
## 318                4 Afternoon 2024-01-14 05:00:00 509.1202            1
## 319                3 Afternoon 2024-01-14 06:00:00 505.9534            3
## 320                3     Night 2024-01-14 07:00:00 503.0094            1
## 321                2 Afternoon 2024-01-14 08:00:00 503.5038            3
## 322                1     Night 2024-01-14 09:00:00 502.9902            5
## 323                5   Morning 2024-01-14 10:00:00 501.9948            0
## 324                5     Night 2024-01-14 11:00:00 503.5675            1
## 325                1   Morning 2024-01-14 12:00:00 506.1191            3
## 326                2 Afternoon 2024-01-14 13:00:00 505.1922            1
## 327                1   Morning 2024-01-14 14:00:00 503.6853            3
## 328                1 Afternoon 2024-01-14 15:00:00 509.4865            0
## 329                5   Morning 2024-01-14 16:00:00 498.9681            1
## 330                2   Morning 2024-01-14 17:00:00 505.9184            0
## 331                3   Morning 2024-01-14 18:00:00 504.5717            2
## 332                5   Morning 2024-01-14 19:00:00 502.0895            4
## 333                3     Night 2024-01-14 20:00:00 506.0934            1
## 334                2   Morning 2024-01-14 21:00:00 504.3408            3
## 335                1     Night 2024-01-14 22:00:00 508.7412            1
## 336                4 Afternoon 2024-01-14 23:00:00 507.6042            2
## 337                4 Afternoon 2024-01-15 00:00:00 510.7184            3
## 338                2     Night 2024-01-15 01:00:00 503.5500            0
## 339                4 afternoon 2024-01-15 02:00:00 509.1897            2
## 340                3 Afternoon 2024-01-15 03:00:00 501.5024            3
## 341                4   Morning 2024-01-15 04:00:00 504.6681            3
## 342                2   Morning 2024-01-15 05:00:00 503.6043            1
## 343                2   morning 2024-01-15 06:00:00 506.8073            1
## 344                3     Night 2024-01-15 07:00:00 506.7348            2
## 345                4     Night 2024-01-15 08:00:00 502.2981            0
## 346                4 Afternoon 2024-01-15 09:00:00 506.9746            1
## 347                1   Morning 2024-01-15 10:00:00 503.8585            4
## 348                5     Night 2024-01-15 11:00:00 502.5496            1
## 349                2     Night 2024-01-15 12:00:00 504.9647            3
## 350                1   morning 2024-01-15 13:00:00 511.0000            5
## 351                2     Night 2024-01-15 14:00:00 507.7939            2
## 352                1   Morning 2024-01-15 15:00:00 504.8331            2
## 353                5 Afternoon 2024-01-15 16:00:00 504.8988            1
## 354                1 Afternoon 2024-01-15 17:00:00 504.7385            3
## 355                2 Afternoon 2024-01-15 18:00:00 509.9406            1
## 356                4   Morning 2024-01-15 19:00:00 509.5566            2
## 357                2     Night 2024-01-15 20:00:00 509.0523            2
## 358                3 Afternoon 2024-01-15 21:00:00 504.7449            1
## 359                3 Afternoon 2024-01-15 22:00:00 501.6531            4
## 360                3 Afternoon 2024-01-15 23:00:00 504.9521            2
## 361                3     Night 2024-01-16 00:00:00 505.9432            1
## 362                5     Night 2024-01-16 01:00:00 507.4378            2
## 363                4   Morning 2024-01-16 02:00:00 505.9335            0
## 364                4 Afternoon 2024-01-16 03:00:00 501.9205            0
## 365                2     Night 2024-01-16 04:00:00 503.3938            1
## 366                1   Morning 2024-01-16 05:00:00 503.1216            0
## 367                2 Afternoon 2024-01-16 06:00:00 506.6172            2
## 368                2     Night 2024-01-16 07:00:00 506.6908            4
## 369                2     Night 2024-01-16 08:00:00 507.0839            2
## 370                2   Morning 2024-01-16 09:00:00 505.9031            5
## 371                4 Afternoon 2024-01-16 10:00:00 498.8224            4
## 372                1 Afternoon 2024-01-16 11:00:00 499.8224            4
## 373                2     Night 2024-01-16 12:00:00 504.5794            2
## 374                4 Afternoon 2024-01-16 13:00:00 505.2942            3
## 375                2   Morning 2024-01-16 14:00:00 508.7610            3
## 376                3     Night 2024-01-16 15:00:00 505.2334            2
## 377                2     Night 2024-01-16 16:00:00 502.0722            3
## 378                2   Morning 2024-01-16 17:00:00 506.9865            2
## 379                5     Night 2024-01-16 18:00:00 504.9482            1
## 380                3 Afternoon 2024-01-16 19:00:00 503.7938            2
## 381                1 Afternoon 2024-01-16 20:00:00 500.1562            1
## 382                2     Night 2024-01-16 21:00:00 505.2556            1
## 383                1   Morning 2024-01-16 22:00:00 505.6865            6
## 384                3   Morning 2024-01-16 23:00:00 502.0116            2
## 385                2 Afternoon 2024-01-17 00:00:00 507.2331            1
## 386                5   Morning 2024-01-17 01:00:00 506.9644            2
## 387                4     Night 2024-01-17 02:00:00 505.1467            1
## 388                5     Night 2024-01-17 03:00:00 505.0352            2
## 389                5 Afternoon 2024-01-17 04:00:00 507.8381            4
## 390                4 Afternoon 2024-01-17 05:00:00 506.1026            1
## 391                4 Afternoon 2024-01-17 06:00:00 502.8932            1
## 392                4   Morning 2024-01-17 07:00:00 504.4071            4
## 393                2     Night 2024-01-17 08:00:00 506.6705            4
## 394                1     Night 2024-01-17 09:00:00 498.9030            2
## 395                1     Night 2024-01-17 10:00:00 502.2054            3
## 396                4 Afternoon 2024-01-17 11:00:00 507.0464            3
## 397                5     Night 2024-01-17 12:00:00 508.6266            3
## 398                3   morning 2024-01-17 13:00:00 508.0631            1
## 399                4   Morning 2024-01-17 14:00:00 507.6799            1
## 400                5     Night 2024-01-17 15:00:00 505.3892            0
## 401                5 Afternoon 2024-01-17 16:00:00 501.9133            0
## 402                2     Night 2024-01-17 17:00:00 504.4101            2
## 403                2   Morning 2024-01-17 18:00:00 499.0202            2
## 404                1   Morning 2024-01-17 19:00:00 508.9020            3
## 405                1   Morning 2024-01-17 20:00:00 502.5487            3
## 406                3     Night 2024-01-17 21:00:00 503.4000            3
## 407                3   Morning 2024-01-17 22:00:00 508.1759            2
## 408                3 Afternoon 2024-01-17 23:00:00 500.1561            2
## 409                3     Night 2024-01-18 00:00:00 501.4318            1
## 410                5     Night 2024-01-18 01:00:00 505.8039            1
## 411                5   Morning 2024-01-18 02:00:00 506.5611            3
## 412                1   Morning 2024-01-18 03:00:00 504.7849            6
## 413                2 Afternoon 2024-01-18 04:00:00 504.8828            0
## 414                2     Night 2024-01-18 05:00:00 508.8051            2
## 415                4   Morning 2024-01-18 06:00:00 506.9090            2
## 416                5 Afternoon 2024-01-18 07:00:00 506.5035            2
## 417                3   Morning 2024-01-18 08:00:00 507.3269            1
## 418                3     Night 2024-01-18 09:00:00 504.0982            2
## 419                4   Morning 2024-01-18 10:00:00 511.5195            2
## 420                2     Night 2024-01-18 11:00:00 498.0774            2
## 421                3   Morning 2024-01-18 12:00:00 509.3738            1
## 422                2     Night 2024-01-18 13:00:00 507.7063            2
## 423                4 Afternoon 2024-01-18 14:00:00 505.7449            0
## 424                2     Night 2024-01-18 15:00:00 505.2401            2
## 425                2 Afternoon 2024-01-18 16:00:00 504.5333            2
## 426                2     Night 2024-01-18 17:00:00 508.3103            3
## 427                3 afternoon 2024-01-18 18:00:00 504.8804            0
## 428                1   Morning 2024-01-18 19:00:00 502.8163            1
## 429                5     Night 2024-01-18 20:00:00 507.7059            2
## 430                2   Morning 2024-01-18 21:00:00 509.7543            5
## 431                2 Afternoon 2024-01-18 22:00:00 499.2185            2
## 432                2     Night 2024-01-18 23:00:00       NA            3
## 433                1     Night 2024-01-19 00:00:00 501.8898            3
## 434                4   Morning 2024-01-19 01:00:00 502.1191            0
## 435                3     Night 2024-01-19 02:00:00 501.2653            2
## 436                1     Night 2024-01-19 03:00:00 505.0025            1
## 437                2   morning 2024-01-19 04:00:00 501.1608            1
## 438                1     Night 2024-01-19 05:00:00 501.5252            2
## 439                1   Morning 2024-01-19 06:00:00 502.9343            2
## 440                1   Morning 2024-01-19 07:00:00 505.4154            2
## 441                4   Morning 2024-01-19 08:00:00 505.7046            1
## 442                5   Morning 2024-01-19 09:00:00 508.7236            3
## 443                3   Morning 2024-01-19 10:00:00 508.6544            6
## 444                4 Afternoon 2024-01-19 11:00:00 508.0738            1
## 445                4 Afternoon 2024-01-19 12:00:00 504.2151            4
## 446                5   Morning 2024-01-19 13:00:00 499.4765            1
## 447                4 Afternoon 2024-01-19 14:00:00 499.4101            2
## 448                1 Afternoon 2024-01-19 15:00:00 508.0532            0
## 449                1     Night 2024-01-19 16:00:00 507.5313            3
## 450                2   Morning 2024-01-19 17:00:00 503.1499            1
## 451                4 Afternoon 2024-01-19 18:00:00 500.6778            1
## 452                2     Night 2024-01-19 19:00:00 501.8585            1
## 453                3     Night 2024-01-19 20:00:00 505.5241            1
## 454                1   Morning 2024-01-19 21:00:00 505.5297            0
## 455                3   Morning 2024-01-19 22:00:00 508.1276            3
## 456                5     Night 2024-01-19 23:00:00 503.6489            0
## 457                1   Morning 2024-01-20 00:00:00 504.2679            0
## 458                3   Morning 2024-01-20 01:00:00 508.3760            4
## 459                5     Night 2024-01-20 02:00:00 498.6247            3
## 460                3     Night 2024-01-20 03:00:00 505.9524            3
## 461                5   Morning 2024-01-20 04:00:00 503.9973            1
## 462                5 Afternoon 2024-01-20 05:00:00 507.1383            1
## 463                1   Morning 2024-01-20 06:00:00 506.5378            3
## 464                2 Afternoon 2024-01-20 07:00:00 502.9111            0
## 465                5     Night 2024-01-20 08:00:00 503.4780            3
## 466                5 Afternoon 2024-01-20 09:00:00 498.0941            3
## 467                1     Night 2024-01-20 10:00:00 507.2500            2
## 468                2   Morning 2024-01-20 11:00:00 505.7193            1
## 469                4   Morning 2024-01-20 12:00:00 509.1955            4
## 470                4     Night 2024-01-20 13:00:00 503.8018            2
## 471                2     Night 2024-01-20 14:00:00 507.7430            3
## 472                3     Night 2024-01-20 15:00:00 501.7902            2
## 473                1   Morning 2024-01-20 16:00:00 496.8856            3
## 474                2   morning 2024-01-20 17:00:00 504.7165            0
## 475                4 Afternoon 2024-01-20 18:00:00 503.3000            5
## 476                5     Night 2024-01-20 19:00:00 501.8475            3
## 477                4 Afternoon 2024-01-20 20:00:00 507.6943            2
## 478                5   Morning 2024-01-20 21:00:00 508.6247            4
## 479                1 Afternoon 2024-01-20 22:00:00 505.3163            1
## 480                5 Afternoon 2024-01-20 23:00:00 504.4524            2
## 481                2   Morning 2024-01-21 00:00:00 505.1881            1
## 482                5   Morning 2024-01-21 01:00:00 503.0412            2
## 483                3     Night 2024-01-21 02:00:00 506.6878            0
## 484                2 Afternoon 2024-01-21 03:00:00 500.3819            1
## 485                1   Morning 2024-01-21 04:00:00 501.7808            2
## 486                2   Morning 2024-01-21 05:00:00 502.6262            2
## 487                3 Afternoon 2024-01-21 06:00:00 506.6241            2
## 488                1   Morning 2024-01-21 07:00:00 504.0925            3
## 489                4     Night 2024-01-21 08:00:00 509.0812            1
## 490                3     Night 2024-01-21 09:00:00 507.4099            2
## 491                1 Afternoon 2024-01-21 10:00:00 502.5967            1
## 492                5     Night 2024-01-21 11:00:00 506.9004            3
## 493                2   Morning 2024-01-21 12:00:00 503.7754            1
## 494                1   Morning 2024-01-21 13:00:00 506.4195            1
## 495                2   Morning 2024-01-21 14:00:00 507.5553            2
## 496                5   Morning 2024-01-21 15:00:00 508.3441            1
## 497                1 Afternoon 2024-01-21 16:00:00 505.6061            4
## 498                4     Night 2024-01-21 17:00:00 509.8004            1
## 499                3     Night 2024-01-21 18:00:00 506.3239            1
## 500                1   Morning 2024-01-21 19:00:00 505.4052            1
## 501                5 Afternoon 2024-01-21 20:00:00 504.0925            1
## 502                1   Morning 2024-01-21 21:00:00 503.1061            2
## 503                2   Morning 2024-01-21 22:00:00 506.2597            3
## 504                1 Afternoon 2024-01-21 23:00:00 505.3023            3
## 505                4 Afternoon 2024-01-22 00:00:00 505.7825            4
## 506                1   Morning 2024-01-22 01:00:00 506.4422            3
## 507                3     Night 2024-01-22 02:00:00 505.7698            0
## 508                1   Morning 2024-01-22 03:00:00 511.0399            1
## 509                2     Night 2024-01-22 04:00:00 503.4161            1
## 510                1     Night 2024-01-22 05:00:00 506.2969            1
## 511                4 Afternoon 2024-01-22 06:00:00 504.3169            3
## 512                5 Afternoon 2024-01-22 07:00:00 497.6156            3
## 513                1   Morning 2024-01-22 08:00:00 504.4196            3
## 514                1     Night 2024-01-22 09:00:00 502.1905            2
## 515                3     Night 2024-01-22 10:00:00       NA            2
## 516                4   Morning 2024-01-22 11:00:00 504.9208            3
## 517                5   Morning 2024-01-22 12:00:00 506.1561            1
## 518                2   Morning 2024-01-22 13:00:00 503.4095            3
## 519                1 Afternoon 2024-01-22 14:00:00 503.7847            2
## 520                5   Morning 2024-01-22 15:00:00 507.1021            5
## 521                2   Morning 2024-01-22 16:00:00 502.5728            2
## 522                4     Night 2024-01-22 17:00:00 499.4846            2
## 523                4   Morning 2024-01-22 18:00:00 505.4711            1
## 524                5     Night 2024-01-22 19:00:00 508.2125            2
## 525                2     Night 2024-01-22 20:00:00 507.0675            4
## 526                4 Afternoon 2024-01-22 21:00:00 505.5265            1
## 527                5   Morning 2024-01-22 22:00:00 508.7519            1
## 528                4   Morning 2024-01-22 23:00:00 508.2461            1
## 529                4     Night 2024-01-23 00:00:00 504.0073            3
## 530                4 Afternoon 2024-01-23 01:00:00 505.7426            0
## 531                3 Afternoon 2024-01-23 02:00:00 505.8714            3
## 532                2   Morning 2024-01-23 03:00:00 504.7397            0
## 533                5     Night 2024-01-23 04:00:00 508.4027            1
## 534                5   Morning 2024-01-23 05:00:00 504.5436            0
## 535                2   Morning 2024-01-23 06:00:00 503.4992            0
## 536                2   Morning 2024-01-23 07:00:00 497.2254            0
## 537                2   Morning 2024-01-23 08:00:00 502.6051            1
## 538                2     Night 2024-01-23 09:00:00 501.0537            2
## 539                1 Afternoon 2024-01-23 10:00:00 504.8788            1
## 540                5   Morning 2024-01-23 11:00:00 501.2389            3
## 541                1   Morning 2024-01-23 12:00:00 506.8261            2
## 542                4   Morning 2024-01-23 13:00:00 508.3253            4
## 543                4   Morning 2024-01-23 14:00:00 504.9065            0
## 544                5 Afternoon 2024-01-23 15:00:00 502.0479            3
## 545                4 Afternoon 2024-01-23 16:00:00 505.8592            4
## 546                2 Afternoon 2024-01-23 17:00:00 510.6804            1
## 547                1 Afternoon 2024-01-23 18:00:00 509.7474            4
## 548                2   Morning 2024-01-23 19:00:00 500.7818            2
## 549                4     Night 2024-01-23 20:00:00 500.6705            0
## 550                1 Afternoon 2024-01-23 21:00:00 499.9014            1
## 551                2 Afternoon 2024-01-23 22:00:00 501.5891            1
## 552                5   Morning 2024-01-23 23:00:00 505.7548            2
## 553                2   Morning 2024-01-24 00:00:00 503.3299            2
## 554                4   Morning 2024-01-24 01:00:00 502.4840            3
## 555                1   Morning 2024-01-24 02:00:00 508.1173            2
## 556                5     Night 2024-01-24 03:00:00 506.5903            3
## 557                1     Night 2024-01-24 04:00:00 499.8859            1
## 558                5 Afternoon 2024-01-24 05:00:00 507.9452            1
## 559                1     Night 2024-01-24 06:00:00 506.5181            3
## 560                4 Afternoon 2024-01-24 07:00:00 506.5848            1
## 561                5 Afternoon 2024-01-24 08:00:00 503.2886            3
## 562                3     Night 2024-01-24 09:00:00 504.4381            1
## 563                1 Afternoon 2024-01-24 10:00:00 499.0818            2
## 564                1   Morning 2024-01-24 11:00:00 507.6010            1
## 565                2 Afternoon 2024-01-24 12:00:00 502.0032            2
## 566                5   Morning 2024-01-24 13:00:00 502.3881            4
## 567                3     Night 2024-01-24 14:00:00 502.3476            2
## 568                4     Night 2024-01-24 15:00:00 510.4012            2
## 569                2 Afternoon 2024-01-24 16:00:00 450.0000            3
## 570                3   Morning 2024-01-24 17:00:00 507.8268            3
## 571                5 Afternoon 2024-01-24 18:00:00 504.9280            1
## 572                3     Night 2024-01-24 19:00:00 502.5127            2
## 573                1 Afternoon 2024-01-24 20:00:00 501.9688            1
## 574                1 Afternoon 2024-01-24 21:00:00 503.1134            3
## 575                2   Morning 2024-01-24 22:00:00 504.7766            3
## 576                5     Night 2024-01-24 23:00:00 506.8052            1
## 577                5 Afternoon 2024-01-25 00:00:00 450.0000            3
## 578                3   Morning 2024-01-25 01:00:00 503.4748            1
## 579                2 Afternoon 2024-01-25 02:00:00 502.3565            2
## 580                5   Morning 2024-01-25 03:00:00 501.4179            3
## 581                1   Morning 2024-01-25 04:00:00 501.1669            3
## 582                3 Afternoon 2024-01-25 05:00:00 507.9641            3
## 583                4     Night 2024-01-25 06:00:00 503.4135            0
## 584                1     Night 2024-01-25 07:00:00 503.6792            0
## 585                2   Morning 2024-01-25 08:00:00 503.0002            5
## 586                5     Night 2024-01-25 09:00:00 504.0494            0
## 587                1   Morning 2024-01-25 10:00:00 506.1132            1
## 588                4     Night 2024-01-25 11:00:00 503.5394            0
## 589                4 Afternoon 2024-01-25 12:00:00 505.5422            3
## 590                2     Night 2024-01-25 13:00:00 509.2546            1
## 591                1   Morning 2024-01-25 14:00:00 502.5410            3
## 592                3   Morning 2024-01-25 15:00:00 503.6816            1
## 593                1     Night 2024-01-25 16:00:00 506.9232            7
## 594                4 Afternoon 2024-01-25 17:00:00 509.4919            3
## 595                2   Morning 2024-01-25 18:00:00 501.2731            2
## 596                2   Morning 2024-01-25 19:00:00 499.8976            1
## 597                3   Morning 2024-01-25 20:00:00 504.9982            2
## 598                2   Morning 2024-01-25 21:00:00 504.6884            2
## 599                2   Morning 2024-01-25 22:00:00 507.1005            4
## 600                2 Afternoon 2024-01-25 23:00:00 506.6427            1
## 601                2     Night 2024-01-26 00:00:00 504.8981            5
## 602                2 Afternoon 2024-01-26 01:00:00 508.1476            1
## 603                4 Afternoon 2024-01-26 02:00:00 502.9569            2
## 604                1   Morning 2024-01-26 03:00:00       NA            1
## 605                5 Afternoon 2024-01-26 04:00:00 501.3529            2
## 606                2   morning 2024-01-26 05:00:00 504.8736            2
## 607                5 Afternoon 2024-01-26 06:00:00 500.6166            0
## 608                5   Morning 2024-01-26 07:00:00 501.6525            4
## 609                4   Morning 2024-01-26 08:00:00 510.1284            2
## 610                2 Afternoon 2024-01-26 09:00:00 499.5264            3
## 611                5 Afternoon 2024-01-26 10:00:00 504.3500            0
## 612                2     Night 2024-01-26 11:00:00 507.4816            2
## 613                3     Night 2024-01-26 12:00:00 511.6641            1
## 614                3     Night 2024-01-26 13:00:00 505.5312            3
## 615                3 Afternoon 2024-01-26 14:00:00 505.7027            1
## 616                5 Afternoon 2024-01-26 15:00:00 505.1191            7
## 617                3   Morning 2024-01-26 16:00:00 508.1717            2
## 618                4     Night 2024-01-26 17:00:00 506.2951            0
## 619                4   Morning 2024-01-26 18:00:00 503.2747            3
## 620                5   Morning 2024-01-26 19:00:00 508.3465            5
## 621                2   Morning 2024-01-26 20:00:00 503.6134            1
## 622                1   Morning 2024-01-26 21:00:00 500.2045            1
## 623                2     Night 2024-01-26 22:00:00 500.2140            1
## 624                2   Morning 2024-01-26 23:00:00 504.3968            2
## 625                2 Afternoon 2024-01-27 00:00:00 505.3091            1
## 626                2 Afternoon 2024-01-27 01:00:00 507.8669            4
## 627                1 Afternoon 2024-01-27 02:00:00 506.9224            2
## 628                3     Night 2024-01-27 03:00:00 505.2396            3
## 629                2   Morning 2024-01-27 04:00:00 508.0345            2
## 630                4     Night 2024-01-27 05:00:00 505.0382            0
## 631                5   Morning 2024-01-27 06:00:00 501.1285            1
## 632                5     Night 2024-01-27 07:00:00 500.4746            5
## 633                4     Night 2024-01-27 08:00:00 508.8361            4
## 634                2   Morning 2024-01-27 09:00:00 498.2643            1
## 635                1     Night 2024-01-27 10:00:00 504.3978            3
## 636                3   Morning 2024-01-27 11:00:00 513.9454            2
## 637                5 Afternoon 2024-01-27 12:00:00 506.3777            3
## 638                3 Afternoon 2024-01-27 13:00:00 504.3744            1
## 639                1 Afternoon 2024-01-27 14:00:00 499.9466            1
## 640                5     Night 2024-01-27 15:00:00 509.8521            1
## 641                3 Afternoon 2024-01-27 16:00:00 508.6415            1
## 642                1   Morning 2024-01-27 17:00:00 507.0544            2
## 643                3 Afternoon 2024-01-27 18:00:00 504.9983            2
## 644                2 Afternoon 2024-01-27 19:00:00 506.7160            0
## 645                1     Night 2024-01-27 20:00:00 504.5541            1
## 646                3   Morning 2024-01-27 21:00:00 502.0802            0
## 647                2     Night 2024-01-27 22:00:00 507.8690            2
## 648                2     night 2024-01-27 23:00:00 504.8480            0
## 649                1   Morning 2024-01-28 00:00:00 506.5658            3
## 650                4     Night 2024-01-28 01:00:00 504.6366            2
## 651                5   Morning 2024-01-28 02:00:00 506.3855            2
## 652                1 Afternoon 2024-01-28 03:00:00 504.9565            4
## 653                2   Morning 2024-01-28 04:00:00 504.7224            2
## 654                2   Morning 2024-01-28 05:00:00 505.0900            1
## 655                1   Morning 2024-01-28 06:00:00 513.8826            0
## 656                4     Night 2024-01-28 07:00:00 507.4072            1
## 657                5   Morning 2024-01-28 08:00:00 512.7582            1
## 658                3   Morning 2024-01-28 09:00:00 504.9757            2
## 659                1   Morning 2024-01-28 10:00:00 499.0000            1
## 660                5 Afternoon 2024-01-28 11:00:00 501.7774            4
## 661                5   Morning 2024-01-28 12:00:00 509.8097            1
## 662                2     Night 2024-01-28 13:00:00 502.2844            2
## 663                3   Morning 2024-01-28 14:00:00 510.4287            0
## 664                1   Morning 2024-01-28 15:00:00 501.9514            1
## 665                2 Afternoon 2024-01-28 16:00:00 507.6600            2
## 666                2   morning 2024-01-28 17:00:00 500.2270            2
## 667                4     Night 2024-01-28 18:00:00 503.6741            5
## 668                5   Morning 2024-01-28 19:00:00 505.0662            3
## 669                1     Night 2024-01-28 20:00:00 503.2075            0
## 670                1 afternoon 2024-01-28 21:00:00 504.4920            1
## 671                1   Morning 2024-01-28 22:00:00 504.5064            0
## 672                2 Afternoon 2024-01-28 23:00:00 507.4208            2
## 673                4   Morning 2024-01-29 00:00:00 498.7397            2
## 674                3     Night 2024-01-29 01:00:00 503.3112            5
## 675                2 Afternoon 2024-01-29 02:00:00 508.7639            2
## 676                3   Morning 2024-01-29 03:00:00 506.6874            2
## 677                4     Night 2024-01-29 04:00:00 508.8139            3
## 678                5 Afternoon 2024-01-29 05:00:00 507.2764            5
## 679                1   Morning 2024-01-29 06:00:00 501.7495            5
## 680                3 Afternoon 2024-01-29 07:00:00 506.9827            2
## 681                2   Morning 2024-01-29 08:00:00 505.3006            1
## 682                3     Night 2024-01-29 09:00:00 511.8042            0
## 683                5     Night 2024-01-29 10:00:00 507.4065            1
## 684                1 Afternoon 2024-01-29 11:00:00 506.5701            1
## 685                3 Afternoon 2024-01-29 12:00:00 507.0083            1
## 686                5   Morning 2024-01-29 13:00:00 506.4065            2
## 687                2     Night 2024-01-29 14:00:00 506.3254            2
## 688                4   Morning 2024-01-29 15:00:00 504.2011            1
## 689                2     Night 2024-01-29 16:00:00 506.6064            1
## 690                1 Afternoon 2024-01-29 17:00:00 507.8454            1
## 691                2   Morning 2024-01-29 18:00:00 508.1810            2
## 692                2   Morning 2024-01-29 19:00:00 507.8174            2
## 693                2     Night 2024-01-29 20:00:00 509.5242            1
## 694                2     Night 2024-01-29 21:00:00 508.3687            3
## 695                1     Night 2024-01-29 22:00:00 506.8856            2
## 696                5 Afternoon 2024-01-29 23:00:00 501.5690            1
## 697                3   Morning 2024-01-30 00:00:00 501.5702            1
## 698                4     Night 2024-01-30 01:00:00 504.2556            1
## 699                3 Afternoon 2024-01-30 02:00:00 505.1403            3
## 700                3     Night 2024-01-30 03:00:00 509.1940            1
## 701                4   Morning 2024-01-30 04:00:00 496.6609            5
## 702                1     Night 2024-01-30 05:00:00 501.9004            1
## 703                4   Morning 2024-01-30 06:00:00 504.4173            3
## 704                1 Afternoon 2024-01-30 07:00:00 502.0094            5
## 705                3 Afternoon 2024-01-30 08:00:00 502.6057            1
## 706                1     Night 2024-01-30 09:00:00 503.5025            0
## 707                5   Morning 2024-01-30 10:00:00 502.1625            3
## 708                4   Morning 2024-01-30 11:00:00 502.6827            2
## 709                5   Morning 2024-01-30 12:00:00 509.0897            0
## 710                3     Night 2024-01-30 13:00:00 506.8430            0
## 711                4   Morning 2024-01-30 14:00:00 507.2918            2
## 712                3   Morning 2024-01-30 15:00:00 504.8976            1
## 713                5   Morning 2024-01-30 16:00:00 508.0333            2
## 714                3   Morning 2024-01-30 17:00:00 507.5434            2
## 715                4     Night 2024-01-30 18:00:00 506.7956            2
## 716                4     Night 2024-01-30 19:00:00 503.0375            3
## 717                3   Morning 2024-01-30 20:00:00 503.6739            2
## 718                4   morning 2024-01-30 21:00:00 508.1744            1
## 719                4 Afternoon 2024-01-30 22:00:00 503.4498            2
## 720                3 Afternoon 2024-01-30 23:00:00 501.1344            2
## 721                5   Morning 2024-01-31 00:00:00 503.3919            2
## 722                4   Morning 2024-01-31 01:00:00 509.6782            4
## 723                4 Afternoon 2024-01-31 02:00:00 503.3949            4
## 724                4 Afternoon 2024-01-31 03:00:00 505.9830            0
## 725                4   Morning 2024-01-31 04:00:00 503.1529            3
## 726                3     Night 2024-01-31 05:00:00 507.2903            1
## 727                5     Night 2024-01-31 06:00:00 506.6104            3
## 728                5   Morning 2024-01-31 07:00:00 500.5264            3
## 729                1   Morning 2024-01-31 08:00:00 505.8041            2
## 730                4 Afternoon 2024-01-31 09:00:00 499.9522            2
## 731                4 Afternoon 2024-01-31 10:00:00 503.3378            1
## 732                1     Night 2024-01-31 11:00:00 504.9657            2
## 733                5   Morning 2024-01-31 12:00:00 510.5406            0
## 734                2 Afternoon 2024-01-31 13:00:00 505.9537            1
## 735                2     Night 2024-01-31 14:00:00 502.6987            2
## 736                5     Night 2024-01-31 15:00:00 504.0484            1
## 737                4     Night 2024-01-31 16:00:00 507.7726            2
## 738                2 Afternoon 2024-01-31 17:00:00 502.7394            2
## 739                3 Afternoon 2024-01-31 18:00:00 508.2909            1
## 740                3   Morning 2024-01-31 19:00:00 503.4308            0
## 741                1   Morning 2024-01-31 20:00:00 502.2540            2
## 742                5     Night 2024-01-31 21:00:00 503.5270            3
## 743                5     Night 2024-01-31 22:00:00 500.1511            3
## 744                2 Afternoon 2024-01-31 23:00:00 498.4823            1
## 745                4 Afternoon 2024-02-01 00:00:00 504.7524            2
## 746                5   Morning 2024-02-01 01:00:00 504.7981            3
## 747                2   Morning 2024-02-01 02:00:00 505.7694            1
## 748                2   Morning 2024-02-01 03:00:00 504.7376            2
## 749                5 Afternoon 2024-02-01 04:00:00 511.9878            1
## 750                2     night 2024-02-01 05:00:00 505.5052            4
## 751                1   Morning 2024-02-01 06:00:00 500.8706            2
## 752                1   morning 2024-02-01 07:00:00 501.6403            5
## 753                5 Afternoon 2024-02-01 08:00:00 505.0009            2
## 754                4   Morning 2024-02-01 09:00:00 503.6937            4
## 755                1     Night 2024-02-01 10:00:00 501.3146            3
## 756                1 Afternoon 2024-02-01 11:00:00 504.8235            0
## 757                5   Morning 2024-02-01 12:00:00 504.8673            3
## 758                3   morning 2024-02-01 13:00:00 509.7871            1
## 759                2 Afternoon 2024-02-01 14:00:00 502.2517            3
## 760                1 Afternoon 2024-02-01 15:00:00 503.7468            2
## 761                3   Morning 2024-02-01 16:00:00 509.7778            1
## 762                4     Night 2024-02-01 17:00:00 505.9858            0
## 763                3 Afternoon 2024-02-01 18:00:00 502.2341            1
## 764                5     Night 2024-02-01 19:00:00 502.8558            1
## 765                4   morning 2024-02-01 20:00:00 501.3575            4
## 766                4     Night 2024-02-01 21:00:00 505.2318            1
## 767                3   Morning 2024-02-01 22:00:00 508.0935            2
## 768                5   Morning 2024-02-01 23:00:00 509.8927            3
## 769                1   Morning 2024-02-02 00:00:00 500.5412            3
## 770                3   Morning 2024-02-02 01:00:00 507.6074            1
## 771                1     Night 2024-02-02 02:00:00 505.4929            2
## 772                3   Morning 2024-02-02 03:00:00 504.2142            4
## 773                1   Morning 2024-02-02 04:00:00 503.7480            5
## 774                3     Night 2024-02-02 05:00:00 499.2372            1
## 775                4 Afternoon 2024-02-02 06:00:00 506.9140            2
## 776                2     Night 2024-02-02 07:00:00 501.0434            3
## 777                4     Night 2024-02-02 08:00:00 502.7554            2
## 778                1     Night 2024-02-02 09:00:00 506.2540            2
## 779                5   Morning 2024-02-02 10:00:00 499.5501            3
## 780                4   Morning 2024-02-02 11:00:00 501.0376            2
## 781                2   Morning 2024-02-02 12:00:00 508.6560            0
## 782                1 Afternoon 2024-02-02 13:00:00 505.3662            4
## 783                4   Morning 2024-02-02 14:00:00 503.0134            1
## 784                3 Afternoon 2024-02-02 15:00:00 505.3780            0
## 785                5   Morning 2024-02-02 16:00:00 507.0084            3
## 786                1     Night 2024-02-02 17:00:00 508.3743            3
## 787                4   Morning 2024-02-02 18:00:00 501.6627            2
## 788                1 Afternoon 2024-02-02 19:00:00 501.9255            3
## 789                3 Afternoon 2024-02-02 20:00:00 506.8250            1
## 790                2   Morning 2024-02-02 21:00:00 506.9212            1
## 791                4     Night 2024-02-02 22:00:00 500.9681            2
## 792                1   Morning 2024-02-02 23:00:00       NA            3
## 793                1   Morning 2024-02-03 00:00:00 504.4188            4
## 794                1   Morning 2024-02-03 01:00:00 505.0707            2
## 795                2     Night 2024-02-03 02:00:00 505.1558            4
## 796                1 Afternoon 2024-02-03 03:00:00 500.9220            1
## 797                5     Night 2024-02-03 04:00:00 505.1255            0
## 798                5 afternoon 2024-02-03 05:00:00 502.8479            3
## 799                1 Afternoon 2024-02-03 06:00:00 501.5010            6
## 800                5 Afternoon 2024-02-03 07:00:00 504.9670            3
## 801                4     Night 2024-02-03 08:00:00 504.6610            3
## 802                5   Morning 2024-02-03 09:00:00 507.4051            3
## 803                1   Morning 2024-02-03 10:00:00 502.4171            4
## 804                3   Morning 2024-02-03 11:00:00 505.7055            2
## 805                4   Morning 2024-02-03 12:00:00 500.2940            1
## 806                2   Morning 2024-02-03 13:00:00 504.1754            5
## 807                1     Night 2024-02-03 14:00:00 506.3910            3
## 808                2     night 2024-02-03 15:00:00 506.6441            3
## 809                3     Night 2024-02-03 16:00:00 506.6645            0
## 810                2     Night 2024-02-03 17:00:00 507.4131            0
## 811                1     Night 2024-02-03 18:00:00 503.6626            2
## 812                1     Night 2024-02-03 19:00:00 506.4872            2
## 813                3     Night 2024-02-03 20:00:00 510.6062            2
## 814                1   Morning 2024-02-03 21:00:00 503.5986            0
## 815                3 Afternoon 2024-02-03 22:00:00 509.1406            0
## 816                3     Night 2024-02-03 23:00:00 507.6294            2
## 817                1 Afternoon 2024-02-04 00:00:00 504.2010            0
## 818                5     Night 2024-02-04 01:00:00 504.4514            0
## 819                3     Night 2024-02-04 02:00:00 505.3552            5
## 820                1   Morning 2024-02-04 03:00:00 507.4605            1
## 821                5 Afternoon 2024-02-04 04:00:00 506.2079            2
## 822                3   Morning 2024-02-04 05:00:00 503.5750            1
## 823                5   Morning 2024-02-04 06:00:00 498.7538            0
## 824                4 Afternoon 2024-02-04 07:00:00 507.0165            0
## 825                4   Morning 2024-02-04 08:00:00 499.2025            0
## 826                5     Night 2024-02-04 09:00:00 500.9021            0
## 827                3     Night 2024-02-04 10:00:00 503.7926            2
## 828                1     Night 2024-02-04 11:00:00 501.3578            4
## 829                2     Night 2024-02-04 12:00:00 505.9526            0
## 830                1     Night 2024-02-04 13:00:00 504.1114            1
## 831                2   Morning 2024-02-04 14:00:00 507.3557            3
## 832                2   Morning 2024-02-04 15:00:00 500.1768            1
## 833                3     Night 2024-02-04 16:00:00 503.0143            2
## 834                5     Night 2024-02-04 17:00:00 560.0000            1
## 835                1   Morning 2024-02-04 18:00:00 505.1282            4
## 836                5 Afternoon 2024-02-04 19:00:00 507.0821            3
## 837                4   Morning 2024-02-04 20:00:00 502.2562            1
## 838                3   Morning 2024-02-04 21:00:00 503.5960            2
## 839                3   Morning 2024-02-04 22:00:00 506.5220            1
## 840                4   Morning 2024-02-04 23:00:00 498.4043            4
## 841                1   Morning 2024-02-05 00:00:00 506.1548            0
## 842                4 Afternoon 2024-02-05 01:00:00 507.2918            5
## 843                1     Night 2024-02-05 02:00:00 500.9990            2
## 844                2     Night 2024-02-05 03:00:00 504.0549            3
## 845                3 Afternoon 2024-02-05 04:00:00 509.4780            3
## 846                1     Night 2024-02-05 05:00:00 506.9795            1
## 847                5     Night 2024-02-05 06:00:00       NA            2
## 848                5     Night 2024-02-05 07:00:00 507.9729            0
## 849                3 Afternoon 2024-02-05 08:00:00 510.4136            1
## 850                4 Afternoon 2024-02-05 09:00:00 505.0556            0
## 851                4     Night 2024-02-05 10:00:00 450.0000            4
## 852                1     Night 2024-02-05 11:00:00 507.9656            4
## 853                4     Night 2024-02-05 12:00:00 504.4376            3
## 854                3   Morning 2024-02-05 13:00:00 502.2159            1
## 855                1   Morning 2024-02-05 14:00:00 503.3798            4
## 856                2   Morning 2024-02-05 15:00:00 505.9370            1
## 857                4 Afternoon 2024-02-05 16:00:00 503.6512            5
## 858                4     Night 2024-02-05 17:00:00 503.8751            0
## 859                1 Afternoon 2024-02-05 18:00:00 501.9181            3
## 860                5 Afternoon 2024-02-05 19:00:00 509.3061            0
## 861                4 Afternoon 2024-02-05 20:00:00 503.9721            4
## 862                3     Night 2024-02-05 21:00:00 502.8655            1
## 863                4   Morning 2024-02-05 22:00:00 503.1846            2
## 864                2     Night 2024-02-05 23:00:00 507.4076            2
## 865                4     Night 2024-02-06 00:00:00 506.7196            2
## 866                5 Afternoon 2024-02-06 01:00:00 503.4944            1
## 867                4 Afternoon 2024-02-06 02:00:00 505.0969            2
## 868                1 Afternoon 2024-02-06 03:00:00 505.8301            3
## 869                4   Morning 2024-02-06 04:00:00 502.8878            1
## 870                5   Morning 2024-02-06 05:00:00 500.3781            2
## 871                1   Morning 2024-02-06 06:00:00 506.5451            4
## 872                3     Night 2024-02-06 07:00:00 503.0538            2
## 873                1 Afternoon 2024-02-06 08:00:00 506.3210            1
## 874                2     Night 2024-02-06 09:00:00 505.9631            0
## 875                1   Morning 2024-02-06 10:00:00 505.1674            2
## 876                3 Afternoon 2024-02-06 11:00:00 503.7216            2
## 877                4   morning 2024-02-06 12:00:00 503.0982            2
## 878                1 Afternoon 2024-02-06 13:00:00 501.5847            2
## 879                1 Afternoon 2024-02-06 14:00:00 503.1558            0
## 880                1     Night 2024-02-06 15:00:00 506.7064            3
## 881                1     Night 2024-02-06 16:00:00 509.1935            1
## 882                3   Morning 2024-02-06 17:00:00 508.7533            3
## 883                5     Night 2024-02-06 18:00:00 505.4363            5
## 884                5     Night 2024-02-06 19:00:00 509.1919            4
## 885                1     Night 2024-02-06 20:00:00 504.0795            2
## 886                3 Afternoon 2024-02-06 21:00:00 501.1269            2
## 887                3     Night 2024-02-06 22:00:00 510.7626            5
## 888                1   Morning 2024-02-06 23:00:00 506.5984            0
## 889                2 Afternoon 2024-02-07 00:00:00 500.3961            2
## 890                1 Afternoon 2024-02-07 01:00:00 509.6771            4
## 891                2     Night 2024-02-07 02:00:00 502.7697            6
## 892                1 Afternoon 2024-02-07 03:00:00 503.4224            0
## 893                2   Morning 2024-02-07 04:00:00 508.0641            2
## 894                2   Morning 2024-02-07 05:00:00 509.0851            1
## 895                1 Afternoon 2024-02-07 06:00:00 501.9978            1
## 896                2     Night 2024-02-07 07:00:00 509.4130            3
## 897                4     Night 2024-02-07 08:00:00 507.6227            3
## 898                5 Afternoon 2024-02-07 09:00:00 502.6008            4
## 899                3   Morning 2024-02-07 10:00:00       NA            2
## 900                2 Afternoon 2024-02-07 11:00:00 509.5484            4
## 901                2     Night 2024-02-07 12:00:00 500.3183            4
## 902                3     Night 2024-02-07 13:00:00 509.1421            4
## 903                2 Afternoon 2024-02-07 14:00:00 507.5392            3
## 904                3   Morning 2024-02-07 15:00:00 506.5274            3
## 905                1 Afternoon 2024-02-07 16:00:00 505.3951            3
## 906                4   Morning 2024-02-07 17:00:00 510.9104            1
## 907                4   Morning 2024-02-07 18:00:00 511.3538            1
## 908                5 Afternoon 2024-02-07 19:00:00 503.1543            3
## 909                2 Afternoon 2024-02-07 20:00:00 506.8366            6
## 910                5   Morning 2024-02-07 21:00:00 510.6231            0
## 911                1   Morning 2024-02-07 22:00:00 502.6449            2
## 912                4   Morning 2024-02-07 23:00:00 505.7294            2
## 913                1   Morning 2024-02-08 00:00:00 508.0116            0
## 914                1     Night 2024-02-08 01:00:00 498.9553            7
## 915                2 Afternoon 2024-02-08 02:00:00 507.4857            3
## 916                1   Morning 2024-02-08 03:00:00 501.7347            4
## 917                4 Afternoon 2024-02-08 04:00:00 505.5770            6
## 918                5   Morning 2024-02-08 05:00:00 508.4330            2
## 919                4 Afternoon 2024-02-08 06:00:00 497.8325            1
## 920                2 Afternoon 2024-02-08 07:00:00 507.3576            2
## 921                4   Morning 2024-02-08 08:00:00 511.1150            0
## 922                3   Morning 2024-02-08 09:00:00 503.4001            1
## 923                5 Afternoon 2024-02-08 10:00:00 506.7301            1
## 924                3 Afternoon 2024-02-08 11:00:00 509.0059            5
## 925                3 Afternoon 2024-02-08 12:00:00 500.2212            2
## 926                2     Night 2024-02-08 13:00:00 507.2721            2
## 927                1   Morning 2024-02-08 14:00:00 508.0713            4
## 928                3     Night 2024-02-08 15:00:00 506.9159            1
## 929                4     Night 2024-02-08 16:00:00 505.2599            4
## 930                1   Morning 2024-02-08 17:00:00 501.9988            0
## 931                4   Morning 2024-02-08 18:00:00 509.1743            5
## 932                4     Night 2024-02-08 19:00:00 505.1035            0
## 933                1   Morning 2024-02-08 20:00:00 502.2884            0
## 934                1 Afternoon 2024-02-08 21:00:00 504.0459            2
## 935                4 Afternoon 2024-02-08 22:00:00 506.1052            2
## 936                2     Night 2024-02-08 23:00:00 500.3164            0
## 937                5     Night 2024-02-09 00:00:00 505.0538            2
## 938                5   Morning 2024-02-09 01:00:00 503.7494            5
## 939                2   Morning 2024-02-09 02:00:00 509.0081            2
## 940                1     Night 2024-02-09 03:00:00 499.3753            4
## 941                4     Night 2024-02-09 04:00:00 507.8163            1
## 942                5 Afternoon 2024-02-09 05:00:00 509.2513            2
## 943                4 Afternoon 2024-02-09 06:00:00 499.4887            0
## 944                2   Morning 2024-02-09 07:00:00 499.8485            1
## 945                4 Afternoon 2024-02-09 08:00:00 510.3577            1
## 946                2   Morning 2024-02-09 09:00:00 502.2869            0
## 947                1   Morning 2024-02-09 10:00:00 514.2845            0
## 948                2   Morning 2024-02-09 11:00:00 499.5825            3
## 949                2 Afternoon 2024-02-09 12:00:00 505.5101            2
## 950                5     Night 2024-02-09 13:00:00 504.9298            1
## 951                4     Night 2024-02-09 14:00:00 504.3754            4
## 952                5 Afternoon 2024-02-09 15:00:00 506.3889            2
## 953                3     Night 2024-02-09 16:00:00 506.5619            4
## 954                2   Morning 2024-02-09 17:00:00       NA            1
## 955                3     Night 2024-02-09 18:00:00 501.9575            3
## 956                5 Afternoon 2024-02-09 19:00:00 508.1433            0
## 957                4     Night 2024-02-09 20:00:00 506.8842            2
## 958                5   Morning 2024-02-09 21:00:00 505.3438            3
## 959                4   Morning 2024-02-09 22:00:00 506.7891            0
## 960                4 Afternoon 2024-02-09 23:00:00 507.3068            4
## 961                1 Afternoon 2024-02-10 00:00:00 502.7148            3
## 962                2 Afternoon 2024-02-10 01:00:00 506.6820            4
## 963                5   Morning 2024-02-10 02:00:00 503.3409            0
## 964                4     Night 2024-02-10 03:00:00 507.4061            0
## 965                5     Night 2024-02-10 04:00:00 504.4228            3
## 966                5 Afternoon 2024-02-10 05:00:00 506.8352            4
## 967                4     Night 2024-02-10 06:00:00 503.6986            1
## 968                3     Night 2024-02-10 07:00:00 506.9911            4
## 969                2 Afternoon 2024-02-10 08:00:00 502.0637            2
## 970                2 Afternoon 2024-02-10 09:00:00 505.1085            1
## 971                1   morning 2024-02-10 10:00:00 507.9419            2
## 972                1   Morning 2024-02-10 11:00:00 506.4016            1
## 973                1   Morning 2024-02-10 12:00:00 505.5761            2
## 974                2   Morning 2024-02-10 13:00:00       NA            3
## 975                3     Night 2024-02-10 14:00:00 508.0709            1
## 976                2     Night 2024-02-10 15:00:00 507.5666            2
## 977                2   Morning 2024-02-10 16:00:00 506.9741            4
## 978                2   Morning 2024-02-10 17:00:00 507.3481            0
## 979                2 Afternoon 2024-02-10 18:00:00 509.9713            4
## 980                3     Night 2024-02-10 19:00:00 503.7470            2
## 981                1     Night 2024-02-10 20:00:00 508.0282            0
## 982                5   Morning 2024-02-10 21:00:00 506.0695            1
## 983                1     Night 2024-02-10 22:00:00 503.8506            1
## 984                1 Afternoon 2024-02-10 23:00:00 504.7008            1
## 985                5 Afternoon 2024-02-11 00:00:00 511.0000            3
## 986                2     Night 2024-02-11 01:00:00 502.4202            1
## 987                3   Morning 2024-02-11 02:00:00 507.5920            1
## 988                3     Night 2024-02-11 03:00:00 504.6914            4
## 989                1 Afternoon 2024-02-11 04:00:00 505.2548            1
## 990                5   Morning 2024-02-11 05:00:00 509.0716            2
## 991                4     Night 2024-02-11 06:00:00 505.3892            2
## 992                2   Morning 2024-02-11 07:00:00 509.6580            0
## 993                1   Morning 2024-02-11 08:00:00 503.4256            1
## 994                3 Afternoon 2024-02-11 09:00:00 501.7088            3
## 995                5   Morning 2024-02-11 10:00:00 504.1300            3
## 996                5     Night 2024-02-11 11:00:00 496.5559            1
## 997                1   Morning 2024-02-11 12:00:00 507.7173            1
## 998                4   Morning 2024-02-11 13:00:00 501.8833            0
## 999                3     Night 2024-02-11 14:00:00 503.1469            0
## 1000               1 Afternoon 2024-02-11 15:00:00 507.1488            2
##      temperature humidity
## 1       32.74513 40.72798
## 2       26.56423 72.08712
## 3       34.52342 77.87584
## 4       34.31234 41.28258
## 5       31.59914 41.82324
## 6       33.98608 53.78056
## 7       30.60644 43.51078
## 8       33.43375 59.17104
## 9       23.54711 69.14843
## 10      25.18130 62.67597
## 11      31.29395 47.85728
## 12      26.36842       NA
## 13      32.55991 67.39418
## 14      33.16458 77.29784
## 15      24.49594 45.87188
## 16      32.35176 67.69345
## 17      22.31396 76.45709
## 18      25.01295 60.06257
## 19      27.76947 54.47199
## 20      23.39666 46.82998
## 21      28.68902 74.67148
## 22      28.68043 55.76985
## 23      23.10354 76.99530
## 24      31.93462 73.91033
## 25      29.47467 55.06559
## 26            NA 62.95657
## 27      23.48277 41.08696
## 28      33.18125 50.52886
## 29      32.53613 68.41091
## 30      23.44641 67.11644
## 31      20.53408 54.13478
## 32      32.06799 72.34432
## 33      29.23263 49.43344
## 34      21.51323 58.45082
## 35      28.81037 58.90123
## 36            NA 53.63267
## 37      31.61825 78.18664
## 38      23.13627 67.86736
## 39      26.79735 61.56797
## 40      22.34366 60.42060
## 41      34.36291 46.37184
## 42            NA 54.88748
## 43      31.05084 66.91093
## 44      30.35310 76.98281
## 45      26.35005 72.65856
## 46      33.84924 52.01559
## 47      21.09376 57.35827
## 48      32.04889 43.31670
## 49      23.22849 44.08689
## 50      24.86042 58.80922
## 51      27.79145 61.20878
## 52      31.73983 50.56108
## 53            NA 65.71131
## 54      28.75598 68.13523
## 55      26.04553 51.96465
## 56      34.19754 70.33699
## 57      23.69782 48.22420
## 58      32.04642 61.77006
## 59      29.18074 72.17124
## 60      25.65343 61.48036
## 61      20.02052 76.31851
## 62      26.69899 42.34005
## 63      24.15080 63.53255
## 64      21.56520 62.47022
## 65      21.12738 66.41413
## 66      25.21337 73.33627
## 67      29.22136 69.03412
## 68      32.56279 71.61131
## 69      22.75345 51.55267
## 70      26.36966 55.49990
## 71      25.87934 65.07108
## 72      27.70091 62.13846
## 73      32.14381 78.44415
## 74      28.30468 47.47338
## 75      32.69982 54.05113
## 76      27.77828 62.91021
## 77      29.05771 74.71855
## 78      26.56075 77.17394
## 79      32.34643       NA
## 80      33.85741 42.68434
## 81      29.58717 56.86479
## 82      32.31174 55.77377
## 83      20.88505 79.45948
## 84            NA 57.24245
## 85      22.83388 52.22892
## 86      23.84781       NA
## 87      20.79995 55.87705
## 88      34.48100 72.86162
## 89      32.78016 43.24060
## 90      33.69777 52.66028
## 91            NA 78.65274
## 92      27.19296 46.12410
## 93      33.86123 69.70405
## 94      34.54209 54.25574
## 95      27.53850       NA
## 96      22.63437 43.98192
## 97      29.87934 52.25647
## 98      34.63157 60.03460
## 99      33.08220 49.26803
## 100     32.92723 61.67480
## 101     34.00727 48.79037
## 102     33.40928 66.00402
## 103     31.64422 76.17417
## 104     30.77409 43.41955
## 105     23.97151 48.66464
## 106     29.32010 73.77692
## 107     27.82233 65.26214
## 108     32.92916 43.14836
## 109     27.37569 59.45400
## 110     21.91614 48.39034
## 111     20.07459 47.96386
## 112     30.16810 77.62581
## 113     28.24863 70.46166
## 114     24.96444 67.84922
## 115     22.53458 49.55715
## 116     27.00073 44.74294
## 117     21.50430 74.83330
## 118     25.04163 40.23518
## 119     25.68818 55.52386
## 120     26.98428 51.10450
## 121     26.99931 62.81505
## 122     23.85508 50.02034
## 123     32.75316 52.44821
## 124     25.33315 74.00159
## 125     23.44381 64.12755
## 126     22.63715 45.82730
## 127     24.83868 69.05886
## 128     21.01329 48.29837
## 129     20.49361 57.32020
## 130     29.07713 65.86429
## 131     29.28721 50.87718
## 132     27.94382 55.36427
## 133     31.43428 69.36598
## 134     20.58726 77.51644
## 135     34.03960 61.16980
## 136     21.42598 40.39884
## 137     30.11034 53.53855
## 138     22.00095 55.94537
## 139     33.19858 53.56694
## 140     27.66070 57.45075
## 141     21.23440 65.30665
## 142     29.25086 44.84512
## 143     20.13665 50.90522
## 144     31.64033 60.30592
## 145     29.75877 52.62293
## 146           NA 79.64341
## 147     25.62126       NA
## 148     20.11710 74.79197
## 149     30.40526 75.86039
## 150     24.84002 73.44028
## 151     28.57383 41.87593
## 152     34.35091 77.90987
## 153     24.49200 45.14970
## 154           NA 41.37615
## 155     29.49093 56.57478
## 156     23.63133 47.78536
## 157     26.55167 47.36786
## 158     31.10680 51.51278
## 159     26.69717 49.93622
## 160     21.02761 67.39182
## 161     22.52905 47.47109
## 162     31.86947 61.72473
## 163     29.72560 79.45706
## 164     28.54738 57.29530
## 165     22.51433 65.67492
## 166     32.56636 78.77487
## 167     34.41110 45.50556
## 168           NA 56.74428
## 169     21.17048 74.00770
## 170     33.27087 77.29223
## 171     32.23328 64.04944
## 172     29.26902 45.73682
## 173     34.17448 76.05886
## 174     29.69646 46.97786
## 175     23.23978 54.11511
## 176     30.92963 55.02032
## 177     29.68566 57.89166
## 178     34.78617 71.60663
## 179     23.20844 72.08578
## 180     28.96827 68.78620
## 181     31.70251 40.88515
## 182     25.08475 62.59380
## 183     25.69519 69.89972
## 184     33.31853 57.78501
## 185     26.06292 77.79744
## 186     29.37099 72.95242
## 187     33.33857 65.52620
## 188     23.14740 42.49701
## 189     34.72816 66.09385
## 190     30.52930 76.46318
## 191     27.44183 55.17782
## 192     26.46381 73.52530
## 193     34.31547 52.52645
## 194     23.08587 62.80413
## 195     24.67525 65.93698
## 196     24.61689 67.11980
## 197     24.33510 75.30197
## 198     27.02807 49.38489
## 199     34.83769 50.49478
## 200     33.33180 68.16164
## 201     24.91924 47.08775
## 202     26.34305 58.57082
## 203           NA 40.80138
## 204     20.25728 45.63917
## 205     32.30230 67.15386
## 206     33.19697 69.89846
## 207     32.85801 44.61276
## 208     25.62582 49.10838
## 209     26.92999 43.95618
## 210     20.18582 57.33651
## 211     25.99093 45.04464
## 212     26.90640 57.49184
## 213     33.60461 69.28393
## 214     33.40982 67.33555
## 215     34.49146 51.21842
## 216     33.27657 66.95050
## 217     20.12301 77.10849
## 218     29.62191 53.90098
## 219     21.02357 53.16477
## 220     24.08891       NA
## 221     28.67461 49.82007
## 222     30.50921 66.06316
## 223     29.81948 73.29047
## 224     20.73588 58.37274
## 225     21.55406 67.18029
## 226     21.92880 66.07542
## 227     21.37122 41.54662
## 228     22.67352 47.33665
## 229     30.32732 75.74120
## 230     32.46256 77.55569
## 231     26.13221 71.21759
## 232     30.39172 76.84993
## 233     23.00024 52.24595
## 234     34.59920 49.90844
## 235     25.24996 55.37201
## 236           NA 42.21368
## 237     34.18050 72.39486
## 238     32.97071 79.36702
## 239     21.00601 72.96117
## 240     29.75461 62.19901
## 241     21.80136 51.81128
## 242     20.08495 47.90792
## 243     20.77675 54.56251
## 244     33.74224 66.67878
## 245     33.62695 57.88246
## 246     23.38737 77.36239
## 247     28.20592       NA
## 248     34.32542 44.09602
## 249           NA 45.26101
## 250     25.90367 67.04957
## 251     27.24873 49.23074
## 252     31.85324 71.64120
## 253     27.15916 63.65433
## 254     31.74917 49.19322
## 255     26.47546 59.14747
## 256     23.78009 56.24305
## 257     24.89709 74.92637
## 258     21.16735 41.28650
## 259     27.46072 75.83376
## 260     22.22166 66.08331
## 261     32.17321 69.50153
## 262     26.30886 40.10430
## 263     31.47503 65.12958
## 264     34.31691 63.53945
## 265     32.74217 61.48822
## 266     34.27196 71.43467
## 267     28.51905 62.23484
## 268     22.47987 74.28389
## 269     34.03094 49.30526
## 270     33.02757 72.23930
## 271     32.96619 47.17251
## 272     30.39912 72.52471
## 273     29.37374 77.61854
## 274     20.22086 53.42777
## 275     31.22081 61.19545
## 276     21.37303 66.33316
## 277     23.89626 43.17887
## 278     28.27235 59.76323
## 279     26.77599 54.42340
## 280     20.23662 74.89823
## 281     32.35978 75.06718
## 282     33.18201 68.03118
## 283     30.22809 66.22898
## 284     28.11602 69.34754
## 285     34.41107 54.63948
## 286     21.79934 56.18077
## 287     31.06865 62.14819
## 288     21.92541 77.52113
## 289     25.72767 68.95999
## 290     28.78227 62.03957
## 291     31.05632 70.81652
## 292     20.05574 54.83561
## 293     23.90897 69.21867
## 294     28.07301 56.42705
## 295     27.99311 51.18646
## 296           NA 64.38896
## 297     24.55780 67.47510
## 298     28.10794 58.37174
## 299     22.84680 62.62003
## 300     22.80308 67.76264
## 301     28.64846 70.70840
## 302     30.28209 75.82286
## 303     21.80600 54.18177
## 304     21.84185 78.05909
## 305     28.47954 65.49119
## 306     24.05144 71.50808
## 307     25.88599 67.99076
## 308     26.01123 48.22287
## 309     22.67829 42.85754
## 310     20.01972 69.05146
## 311     32.79728 60.44211
## 312     30.72503 68.08853
## 313     30.35808 59.07371
## 314     28.19758 52.48938
## 315     30.51454 51.40072
## 316     34.03533 69.22129
## 317     29.98511 51.07120
## 318     23.97637 68.58707
## 319     28.55840 55.35841
## 320     26.63487 70.83594
## 321     28.34629 45.71240
## 322     27.76416 48.19920
## 323     32.88163 67.43646
## 324     29.77700 62.40924
## 325     22.83138 48.15513
## 326     20.94525 76.11308
## 327     26.36546 51.03777
## 328     20.23416 56.84286
## 329     24.77446 48.09152
## 330     25.52032 55.52110
## 331     25.63383 59.66587
## 332     34.69025 51.80988
## 333     24.55851 70.76375
## 334     23.97841       NA
## 335     21.94071 69.18040
## 336     27.66513 48.28289
## 337     22.30511 55.08142
## 338     29.24442 40.32233
## 339     22.32740 70.34550
## 340     28.65010 65.03547
## 341     32.39404 72.71293
## 342     20.63787 58.22443
## 343     26.29620 71.98963
## 344     26.91573 65.90330
## 345     31.86608 40.14452
## 346     27.01873 50.14777
## 347     28.51304 59.75565
## 348     31.86806 64.74749
## 349     28.39638 42.62363
## 350     25.37449 68.20320
## 351     21.28763 61.74144
## 352     30.94873 61.03117
## 353     33.06707 51.68182
## 354     34.55097 63.79292
## 355     33.89900 41.09972
## 356     31.96127 42.58801
## 357     29.65208 69.35480
## 358     31.72190 52.87565
## 359     26.48126 53.87868
## 360     28.92164       NA
## 361     25.23050 57.82483
## 362     24.90064 42.07974
## 363     31.35038 52.01453
## 364     26.80899 61.08496
## 365     23.18242 58.62528
## 366     23.02907 79.98679
## 367     32.88759 55.55059
## 368     30.16641       NA
## 369     28.19069 60.14327
## 370     26.01408 47.61212
## 371     26.46226 75.05218
## 372     20.86153 62.89071
## 373     26.82365 47.68431
## 374     31.93182 71.73766
## 375     25.81980 41.37329
## 376     25.75372 79.30257
## 377     20.23575 74.60597
## 378     26.86753 63.18558
## 379     20.38006 44.45183
## 380     28.55524 48.61091
## 381     27.60175 51.17741
## 382     32.60013 49.64127
## 383     28.72671 59.90080
## 384     24.85141 77.78241
## 385     27.74347 57.76690
## 386     30.49560 66.46258
## 387     21.40946 67.54333
## 388     29.31611 74.86323
## 389     33.74939 41.35285
## 390     24.48695 56.17320
## 391     29.39938 71.38940
## 392     32.31994 72.59468
## 393     27.67710 77.09330
## 394     30.76969 68.11177
## 395     24.66516 49.80616
## 396     24.59088 60.22663
## 397     30.01376 41.29381
## 398     30.58113 65.87713
## 399     34.05515 62.17181
## 400     23.37258 66.67345
## 401     27.02326 77.20562
## 402     23.75770 67.49106
## 403     21.20138 52.81800
## 404     26.04846 47.94947
## 405     25.61121 74.18545
## 406     24.05651 47.77329
## 407     24.45492 46.46438
## 408     25.40618 48.26448
## 409     34.83256 60.35363
## 410     31.74437 44.96750
## 411     21.07102 77.52473
## 412     33.08620 78.65015
## 413     29.49955 78.95207
## 414     33.35891 41.56499
## 415     25.12565 77.84790
## 416     26.96778 79.89660
## 417     33.44341 77.69716
## 418     24.08860 66.83756
## 419     33.73251 68.04921
## 420     32.42750 44.89012
## 421     34.70837 74.97188
## 422     24.86386 42.38558
## 423     23.53630 52.70922
## 424     24.96300 79.64607
## 425     34.31975 56.89312
## 426     24.99610 45.24625
## 427     28.47818 78.77179
## 428     26.05519 79.36559
## 429     25.94330 47.48171
## 430     22.90068 74.59215
## 431     28.05619 55.61693
## 432     32.74106 55.25474
## 433     20.74228 50.50791
## 434     33.33840 41.78841
## 435     29.98209 50.72036
## 436     29.25107 42.15108
## 437     29.38850 76.97488
## 438     24.44405 66.46883
## 439     26.22717 75.46491
## 440     31.98935 68.69163
## 441     24.59572 45.25147
## 442     27.05030 77.62326
## 443     20.29448 75.99572
## 444     31.00338 53.92304
## 445     26.26553 44.46133
## 446     27.88038 68.16619
## 447     21.72034 69.13445
## 448     34.87571 75.87316
## 449     24.53702 42.10623
## 450     29.52484 45.66815
## 451     28.71855 63.92995
## 452     31.77638 64.76526
## 453     24.40755 41.34439
## 454     31.33891 55.87728
## 455     25.73753 63.36647
## 456     26.16741 69.51645
## 457     30.09069 52.64603
## 458     31.76429 59.35614
## 459           NA 72.56219
## 460     33.49819 78.15580
## 461     24.27739 49.21259
## 462     33.50925 50.12169
## 463     21.96295 77.59273
## 464     29.89295 55.83645
## 465     28.21446 68.73393
## 466           NA 64.49061
## 467     24.66368 51.42351
## 468     27.55599 66.14249
## 469     22.42660 66.22264
## 470     25.53981 63.69773
## 471     21.48021 43.98643
## 472     28.57770 79.80687
## 473     21.43652 56.01666
## 474     22.40517 65.53004
## 475     21.28200 75.43047
## 476     25.71966 56.93154
## 477     32.62938 70.95700
## 478     33.60345 78.87298
## 479     21.07834 54.35739
## 480     29.51825 56.21078
## 481     30.26578 76.22304
## 482     28.00655 46.38571
## 483     30.00477 41.14379
## 484     23.50536 76.35556
## 485     27.34466 72.86366
## 486     25.86314 78.90332
## 487     21.34562 42.32951
## 488     29.38335 46.24709
## 489     27.42823 44.21250
## 490     24.12761 67.33665
## 491     27.10528 64.24040
## 492     31.62947 54.37341
## 493     32.02487 42.29694
## 494     29.74289 65.58648
## 495     27.01622 62.80482
## 496     28.63624 44.51613
## 497     25.77523 76.35639
## 498     21.89835 47.95799
## 499     25.78431 69.74037
## 500     27.95499 75.40303
## 501     28.98251 63.17900
## 502     34.03701 49.87396
## 503     31.66000 52.36994
## 504     22.27989 75.42990
## 505     22.61273 51.93029
## 506     21.50742 69.84762
## 507     31.07273 79.60661
## 508     30.59183 79.99267
## 509     34.79544 61.33919
## 510     27.83035 73.06223
## 511     32.39622 79.60999
## 512     28.64660 54.98692
## 513     33.11130 50.09638
## 514     30.81532 44.56933
## 515     29.64326 45.63599
## 516     28.47684 74.14225
## 517     30.84456 63.54892
## 518     26.29481 74.94837
## 519     21.44865 71.57820
## 520     20.59979 66.94979
## 521     27.18536 64.37249
## 522     28.98937 41.93356
## 523     21.18274 74.89101
## 524     24.30355 56.71368
## 525     24.83048 62.39147
## 526     28.44193 40.87814
## 527     24.17724 77.44294
## 528     21.43473 76.10962
## 529     22.47285 61.73112
## 530     22.60922 63.09247
## 531     32.64042 68.20069
## 532     24.26480 50.58780
## 533     30.72038 48.87662
## 534     28.51758 66.96092
## 535     34.65558 44.17690
## 536     24.09234 58.16248
## 537     22.37560 59.71042
## 538     20.78057 55.25348
## 539     23.61439 47.41073
## 540     30.26106 54.21265
## 541     21.27887 53.50229
## 542     23.67053 59.97063
## 543           NA 66.98723
## 544     28.74429 78.72940
## 545     21.04282 45.76653
## 546     20.71525 74.92068
## 547     20.91684 51.36712
## 548     34.12813 63.65491
## 549     32.74807 61.86948
## 550     32.67410 62.27794
## 551     33.86325 68.93434
## 552     27.57883 55.26753
## 553     23.71017 52.76400
## 554     26.02022 74.11338
## 555     30.78296 48.80380
## 556     33.14049 47.20984
## 557     26.52636 40.62430
## 558     28.03071 48.42311
## 559     33.97674 60.74126
## 560     21.61248 61.54035
## 561     32.93449 50.17682
## 562     22.38961 42.89097
## 563     27.25792 69.78563
## 564     23.27635 70.31901
## 565     29.04421 79.91346
## 566     28.37860 76.00118
## 567     25.70011 77.04248
## 568     32.94955 71.92815
## 569     29.89720 64.62011
## 570     30.81808 45.14184
## 571     22.25990 64.89253
## 572     33.24749 42.23823
## 573     22.50560 75.41196
## 574     23.34177 59.27285
## 575     21.92083 67.89891
## 576     26.60539 42.08975
## 577     33.31564 61.36994
## 578     23.78671 52.05054
## 579     25.60630 51.39873
## 580     32.69100 55.58624
## 581     29.26723 40.02558
## 582     31.27425 58.66644
## 583     23.21000 59.46267
## 584     30.74735 74.52524
## 585     23.41416 57.94102
## 586     34.80971 54.54225
## 587     28.39829 79.78988
## 588     30.43459 62.84853
## 589     21.77602 58.90453
## 590     23.75984 59.83743
## 591     22.09611 72.36725
## 592     25.85256 53.62705
## 593     24.26204 55.56642
## 594     30.99383 70.23493
## 595     21.63063 42.91935
## 596     31.28089 74.60677
## 597     20.68557 57.20811
## 598     23.03027 63.25172
## 599     31.87947 70.29905
## 600     31.14165 50.64208
## 601     27.14489 75.61257
## 602     20.74974 79.16900
## 603     29.14841 59.77097
## 604     26.10086 77.47749
## 605           NA 40.04514
## 606     29.60616 75.76951
## 607     26.54922 52.44181
## 608     21.38632 52.45982
## 609     33.73926 49.12355
## 610     31.67740 52.68056
## 611     20.84567 48.53938
## 612     27.87596 76.23476
## 613     21.25066 75.96095
## 614     32.55935 44.08845
## 615     29.19521 45.71434
## 616     22.58674 74.48075
## 617     20.31112 55.95751
## 618     20.47372 46.77087
## 619     27.61048 60.42678
## 620     31.01560 56.66672
## 621     21.81261 48.76646
## 622           NA 68.83009
## 623     24.90890 65.25157
## 624     23.27115 43.98646
## 625     25.87005 77.01547
## 626     28.39423 62.33880
## 627     30.27405       NA
## 628     34.45663 48.25167
## 629     33.96266 45.43792
## 630     28.55190 56.98550
## 631     31.01225 45.42164
## 632     34.26308 56.63266
## 633     21.25208 45.95082
## 634     20.08452 66.27230
## 635     20.44700 71.40968
## 636     28.45024 61.98091
## 637     31.44250 67.20227
## 638     25.50612 77.53515
## 639     28.17859 65.53486
## 640     27.74549 54.56633
## 641     21.42156 57.97921
## 642     24.82382 74.42101
## 643     20.29153 45.22881
## 644     21.66059 53.02948
## 645     32.17787 63.09120
## 646     32.44120 67.05558
## 647     32.02919       NA
## 648     30.90228 52.72827
## 649     31.89969 45.83437
## 650     30.06474 78.19357
## 651     30.04750 43.05569
## 652     30.01043 43.83221
## 653     27.71064 59.79770
## 654           NA 72.77084
## 655     30.95293 70.98016
## 656     24.47969 77.50797
## 657     28.14353 45.66410
## 658     26.50033 55.02909
## 659     24.14933 51.28569
## 660     34.62035 74.43480
## 661     23.88127 59.53418
## 662     24.63940 41.07392
## 663     22.42381 68.31858
## 664     32.34471       NA
## 665     28.79884 61.24587
## 666     29.19559 75.75150
## 667     32.30842 50.26951
## 668     25.14379 49.61059
## 669     22.90450 50.52770
## 670     22.97608 53.52432
## 671     30.98930 44.29416
## 672     29.21173 67.88879
## 673     23.09508 48.29595
## 674     22.17598 77.04583
## 675     21.81031 48.62745
## 676     29.41698 50.22568
## 677     20.00178 51.88081
## 678     20.27479 70.74152
## 679     25.84330 57.10426
## 680     30.37025 72.77338
## 681     30.42559 71.39415
## 682     26.45177 77.17962
## 683     30.36610 70.26417
## 684     27.81644 42.07645
## 685     34.65397 73.49125
## 686     22.43690 77.52290
## 687     29.01001 79.74757
## 688     27.36858 45.01070
## 689     22.91700 64.53093
## 690     31.24986 47.97835
## 691     24.13262 50.50039
## 692     25.72565 69.82337
## 693     25.62246 79.10671
## 694     23.66307 63.79422
## 695     26.46058 74.02338
## 696     27.10019 40.35535
## 697     31.16333 41.46527
## 698     31.47603 63.86897
## 699     22.37834 55.55932
## 700     28.89158 75.59031
## 701     33.44297 52.07928
## 702     21.63180 57.28204
## 703     27.09371 61.11637
## 704     31.25530 50.92155
## 705     29.17237 76.33979
## 706     21.50878 58.58134
## 707     25.94909 56.96622
## 708     27.60859 73.99012
## 709     34.93768 52.47914
## 710     22.67912 72.69861
## 711     34.73636 44.89091
## 712     25.64225 47.31154
## 713     23.00481 78.03367
## 714     26.21164 73.69790
## 715     29.20993 55.51596
## 716     23.20246 65.53826
## 717     24.37159 77.71881
## 718     32.81820       NA
## 719           NA 42.36042
## 720     24.77259 61.49872
## 721     22.23285 45.70388
## 722     31.89756 47.49276
## 723     29.00684 75.66157
## 724     21.50602 40.29614
## 725           NA 72.67280
## 726     21.17074 60.67803
## 727     29.38035 62.37178
## 728     26.35906 66.87072
## 729     28.34936 57.25780
## 730     23.19821 44.62448
## 731     30.32166 44.11281
## 732     34.39580 70.17449
## 733           NA 48.84141
## 734     27.84437 41.12407
## 735     23.59718 79.18456
## 736     33.37802 79.21566
## 737     34.56762 55.12565
## 738     31.79445 41.02095
## 739     28.14160 69.09059
## 740     34.35195 73.24048
## 741     22.30775 45.00055
## 742     27.17736 45.41834
## 743     28.06409 72.88896
## 744     27.37875 76.87630
## 745     32.03627 71.63019
## 746     30.05604 48.02980
## 747     21.89988 56.46085
## 748     25.19677 64.03370
## 749     25.08615 46.41174
## 750     28.48448 48.42410
## 751     24.37188 51.31544
## 752     21.75908 60.38053
## 753     29.80524 60.43220
## 754     32.76555 72.57178
## 755     33.97412 70.12041
## 756     34.58868 76.54943
## 757     31.71675 73.31607
## 758     22.09554 50.15510
## 759     32.79668 53.25187
## 760     25.99940 60.01693
## 761     30.94867 40.57085
## 762     27.96902 76.15608
## 763     32.42909 41.77377
## 764     26.38259 52.89765
## 765     20.92691 62.76699
## 766     28.35236 60.71366
## 767     22.56936 66.17840
## 768     34.48276 61.10081
## 769     27.90445       NA
## 770     28.30338 48.04313
## 771     33.60899 76.28988
## 772     29.36878 50.55867
## 773     24.54094 51.23909
## 774     24.44142 56.51812
## 775     27.52368 45.57753
## 776     32.99912 60.29091
## 777     31.92094 66.60127
## 778     34.44111 71.44002
## 779     21.07829 68.45817
## 780     24.02489 45.90544
## 781     21.20312 58.24269
## 782     31.26619 41.54345
## 783     22.11251 40.71192
## 784     21.49829 57.60522
## 785     28.42508 50.11842
## 786     26.17227 67.33443
## 787     30.72652 68.96963
## 788     27.30523 75.81615
## 789     26.38002 70.42730
## 790           NA 41.92976
## 791     33.07815 54.86492
## 792     25.92838 50.92093
## 793           NA 55.44530
## 794     25.07803 46.40303
## 795     22.94901 43.90816
## 796     32.91033 60.83938
## 797     22.19946 68.81525
## 798     33.62916 68.07644
## 799     24.25202 58.03777
## 800     33.49140 60.89116
## 801     31.86231 60.65315
## 802     28.72981 67.66282
## 803     30.04205 41.91701
## 804     24.88766 68.39584
## 805     28.61343 63.28804
## 806     24.38604 47.92435
## 807           NA 41.96235
## 808     31.46994       NA
## 809     23.65899 60.98765
## 810     32.58269 70.33634
## 811     25.63824 53.38629
## 812     27.98255 55.16496
## 813     34.12941 77.36586
## 814     30.21883 48.52052
## 815     29.68406 44.14998
## 816     30.67412 53.73640
## 817     33.77167 69.83688
## 818     23.72771 65.04309
## 819     29.19862 56.63182
## 820     26.00591 78.59010
## 821     20.17783 69.39986
## 822     21.87951 42.47446
## 823     24.87488 69.78526
## 824     28.47500 40.96154
## 825     33.22212 66.01293
## 826     31.86671 48.41931
## 827     28.30001 67.85769
## 828     21.10806 52.39118
## 829     24.28859 74.92025
## 830     25.50063 53.47655
## 831     29.32576 64.78783
## 832     20.97385 51.43710
## 833     27.95290 76.68886
## 834     33.52197 71.23984
## 835     30.58149 49.73212
## 836     31.95615 77.95187
## 837     30.22513 54.28630
## 838     23.09884 66.07460
## 839     21.65726 69.71413
## 840     32.44236 40.91609
## 841     30.43257 78.35869
## 842     28.62592 53.77765
## 843     22.83924 47.59116
## 844     29.05017 74.02831
## 845     20.46983 68.11597
## 846     21.78259 43.46973
## 847     24.67835 44.68178
## 848     26.65607 68.60767
## 849     21.80847 42.99133
## 850     21.79910 76.68702
## 851     30.88840 69.66161
## 852     28.54579 53.41969
## 853     28.00613 54.51755
## 854     26.78652 60.25984
## 855     34.64815 54.43878
## 856     20.74700 71.33874
## 857     22.70941 78.98948
## 858     29.71262 63.38086
## 859     22.04548 57.84149
## 860     28.84071 48.91097
## 861     28.51642 66.13734
## 862     34.56508 67.42307
## 863     33.25080 67.40762
## 864     34.18330 41.07940
## 865     21.70404 75.96488
## 866     33.02223 53.52426
## 867     21.93636 69.76663
## 868     29.49398 70.39228
## 869     30.80117 66.02220
## 870     22.41280 55.79466
## 871     29.48989 64.33537
## 872     20.78691 41.60795
## 873     24.39899 70.47583
## 874     33.81738 43.98355
## 875     22.57597 55.87004
## 876     20.97905 44.14475
## 877     26.65517 73.48298
## 878     32.75927 62.01210
## 879     21.15009 67.63820
## 880     25.33303 67.30329
## 881     33.49662 73.66425
## 882     21.77233 45.30278
## 883     24.66003 66.38913
## 884     31.67631 63.00536
## 885     28.14816 41.23588
## 886     32.48500 48.05692
## 887     21.67393 50.70286
## 888     33.80831 42.90226
## 889     34.02368 54.18879
## 890     22.32970 41.08810
## 891     20.50813 62.12734
## 892     34.84762 48.46004
## 893     27.23377 51.48012
## 894     28.58113 76.41887
## 895     29.23857 60.11267
## 896     31.84503 50.76056
## 897     32.17982 63.93847
## 898     22.90888 48.06686
## 899     23.54955 42.97583
## 900     33.15250 40.83625
## 901     32.29276 78.06116
## 902     29.26429       NA
## 903     34.92049 71.99793
## 904     31.02776 79.23671
## 905     23.23755 77.26515
## 906     32.69966 69.47653
## 907     26.22099 67.75948
## 908     20.54229 53.47400
## 909     24.82132 44.16069
## 910     31.45327 62.94890
## 911     34.40309 63.05013
## 912     24.14205 78.08949
## 913     23.69774 57.70283
## 914     28.45425 67.63230
## 915     32.17526 62.99883
## 916     31.19789 47.07041
## 917     28.39938 63.68257
## 918     29.47085 61.60467
## 919           NA 59.75624
## 920     26.48861 60.53692
## 921     23.83048       NA
## 922     33.26627 58.53911
## 923     21.68832 64.22613
## 924     30.19611 59.57797
## 925     23.90425 59.54745
## 926     27.13366 43.10071
## 927     24.49119 47.63097
## 928     24.84868 52.83891
## 929     23.90590 56.77388
## 930     31.29189 63.75750
## 931     25.48574 74.53380
## 932     30.89536 46.36659
## 933     26.84105 40.60352
## 934     28.20869 57.96949
## 935     28.14931 57.28412
## 936     34.63778 62.07605
## 937     25.50594 73.32887
## 938     23.11526       NA
## 939     33.67688 44.00173
## 940           NA 77.35981
## 941     32.51634       NA
## 942           NA 65.38282
## 943     29.88087 66.89625
## 944     22.25811 67.19510
## 945     33.84629 50.61405
## 946     28.47512 53.21380
## 947     24.93911 61.94708
## 948     22.10484 47.98350
## 949     25.56788 40.81242
## 950     30.57530 62.48578
## 951     25.77426 58.61114
## 952     23.69141 66.26925
## 953     28.66114 45.86802
## 954     26.26733 73.63700
## 955     22.48709 45.84886
## 956     22.30982 75.65374
## 957     30.61193 57.98085
## 958     34.62008 61.99221
## 959     23.49641 75.86325
## 960     31.59723 51.99652
## 961     21.31410 47.27308
## 962     25.72364 57.83006
## 963     27.60032 49.77469
## 964     24.03120 61.11376
## 965     27.94368 51.01031
## 966     33.23922 74.57958
## 967     34.16657 64.29298
## 968     21.50835 40.00963
## 969     24.07769 72.21895
## 970     34.68701 53.20849
## 971     24.05628 52.80832
## 972           NA 55.32251
## 973     23.80181 65.21050
## 974     25.34548 57.68243
## 975     22.86918 65.14542
## 976           NA 45.87123
## 977     33.23973 78.80658
## 978     24.45369 69.18425
## 979     32.35385 50.00828
## 980     25.37362 68.96680
## 981     21.48529 63.00102
## 982     31.37115 44.36756
## 983     28.94669 47.12786
## 984     24.11574 41.65233
## 985     23.79500 72.36952
## 986     34.63435 62.06819
## 987     32.93752 52.66995
## 988     32.14697 45.05380
## 989     21.92027 59.36184
## 990     31.32781 61.01045
## 991     23.21810 68.07794
## 992     34.66083 78.79749
## 993     20.78134 57.39782
## 994     25.28208 56.24137
## 995     26.42972 54.79720
## 996     32.36304 73.07696
## 997     31.49334 46.25269
## 998     25.62488 53.75252
## 999     28.48340 68.99883
## 1000    32.53393 40.62780
sum(is.na(df_mfg))
## [1] 60
colSums(is.na(df_mfg))
## production_line           shift       timestamp          weight    defect_count 
##               0               0               0              10               0 
##     temperature        humidity 
##              30              20
# Melihat semua variasi nama unik di kolom shift
unique(df_mfg$shift)
## [1] "Night"     "Morning"   "Afternoon" "night"     "afternoon" "morning"
# Melihat variasi nama dan frekuensinya
table(df_mfg$shift)
## 
## afternoon Afternoon   morning   Morning     night     Night 
##         7       297        13       364         5       314
# Memperbaiki kapitalisasi shift
df_mfg <- df_mfg %>%
  mutate(shift = str_to_title(shift))

# Cek kembali hasilnya
table(df_mfg$shift)
## 
## Afternoon   Morning     Night 
##       304       377       319
# --- LANGKAH 1: MEMBERSIHKAN NAMA SHIFT ---
df_mfg_clean <- df_mfg %>%
  # Menghapus spasi yang tidak sengaja terketik di awal/akhir kata
  mutate(shift = trimws(shift)) %>% 
  # Mengubah semua menjadi Title Case (Huruf besar di awal)
  mutate(shift = str_to_title(shift))

# --- LANGKAH 2: HANDLING MISSING VALUE (SESUAI SARAN DOSEN) ---

# A. Imputasi Weight berdasarkan Production Line
df_mfg_clean <- df_mfg_clean %>%
  group_by(production_line) %>%
  mutate(weight = ifelse(is.na(weight), median(weight, na.rm = TRUE), weight)) %>%
  ungroup()

# B. Imputasi Temperature & Humidity berdasarkan Shift (yang sudah rapi)
df_mfg_clean <- df_mfg_clean %>%
  group_by(shift) %>%
  mutate(
    temperature = ifelse(is.na(temperature), median(temperature, na.rm = TRUE), temperature),
    humidity = ifelse(is.na(humidity), median(humidity, na.rm = TRUE), humidity)
  ) %>%
  ungroup()

# Cek hasil akhir untuk memastikan tidak ada NA tertinggal
colSums(is.na(df_mfg_clean))
## production_line           shift       timestamp          weight    defect_count 
##               0               0               0               0               0 
##     temperature        humidity 
##               0               0
# Menghitung jumlah baris yang duplikat
sum(duplicated(df_mfg_clean))
## [1] 0
df_mfg_clean
## # A tibble: 1,000 × 7
##    production_line shift     timestamp  weight defect_count temperature humidity
##              <int> <chr>     <chr>       <dbl>        <int>       <dbl>    <dbl>
##  1               3 Night     2024-01-0…   509.            0        32.7     40.7
##  2               4 Morning   2024-01-0…   505.            3        26.6     72.1
##  3               3 Afternoon 2024-01-0…   504.            2        34.5     77.9
##  4               2 Afternoon 2024-01-0…   501.            6        34.3     41.3
##  5               2 Night     2024-01-0…   504.            2        31.6     41.8
##  6               1 Afternoon 2024-01-0…   512.            2        34.0     53.8
##  7               1 Night     2024-01-0…   499.            4        30.6     43.5
##  8               2 Night     2024-01-0…   503.            3        33.4     59.2
##  9               5 Afternoon 2024-01-0…   510.            1        23.5     69.1
## 10               5 Night     2024-01-0…   509.            2        25.2     62.7
## # ℹ 990 more rows
# Syntax agar tiap variabel punya skala Y masing-masing (Free Y Axis)
df_mfg_clean %>%
  select(weight, temperature, humidity) %>%
  pivot_longer(everything()) %>%
  ggplot(aes(x = name, y = value, fill = name)) +
  geom_boxplot() +
  facet_wrap(~name, scales = "free_y") + # INI KUNCINYA
  theme_minimal() +
  labs(title = "Boxplot dengan Skala Mandiri")

# Jalankan ini untuk reset data (mengambil data setelah imputasi tapi sebelum capping)
df_mfg_final <- df_mfg_clean %>%
  # Kita hanya membuang duplikat, TANPA menjalankan cap_outliers
  distinct() 

# Sekarang cek range-nya lagi
summary(df_mfg_final)
##  production_line       shift          timestamp        weight     
##  Min.   :1.000   Length   :1000   Length   :1000   Min.   :450.0  
##  1st Qu.:2.000   N.unique :   3   N.unique :1000   1st Qu.:503.0  
##  Median :3.000   N.blank  :   0   N.blank  :   0   Median :505.0  
##  Mean   :2.916   Min.nchar:   5   Min.nchar:  19   Mean   :504.9  
##  3rd Qu.:4.000   Max.nchar:   9   Max.nchar:  19   3rd Qu.:507.1  
##  Max.   :5.000                                     Max.   :560.0  
##   defect_count    temperature       humidity    
##  Min.   :0.000   Min.   :20.00   Min.   :40.01  
##  1st Qu.:1.000   1st Qu.:23.98   1st Qu.:50.51  
##  Median :2.000   Median :27.75   Median :60.31  
##  Mean   :1.993   Mean   :27.55   Mean   :60.05  
##  3rd Qu.:3.000   3rd Qu.:31.17   3rd Qu.:69.36  
##  Max.   :7.000   Max.   :34.94   Max.   :79.99
# Membersihkan outlier pada kolom weight secara spesifik
df_mfg_final <- df_mfg_final %>%
  mutate(weight = case_when(
    weight < 490 ~ 490,  # Menarik nilai 450 ke 490 (batas bawah wajar)
    weight > 515 ~ 515,  # Menarik nilai yang terlalu berat (jika ada) ke 515
    TRUE ~ weight        # Sisanya tetap sesuai data asli
  ))

# Cek kembali statistiknya
summary(df_mfg_final$weight)
##    Min. 1st Qu.  Median    Mean 3rd Qu.    Max. 
##   490.0   503.0   505.0   505.0   507.1   515.0

Data Analysis

library(gridExtra)
## 
## Attaching package: 'gridExtra'
## The following object is masked from 'package:dplyr':
## 
##     combine
# Q1: Apakah defect_count lebih tinggi pada suhu >30°C?
p1 <- ggplot(df_mfg_final, aes(x = temperature > 30, y = defect_count, fill = temperature > 30)) +
  geom_boxplot() +
  labs(title = "Suhu >30°C vs Defect", x = "Suhu di atas 30°C", y = "Jumlah Defect") +
  theme_minimal()

# Q2: Shift mana yang paling banyak menghasilkan cacat?
p2 <- ggplot(df_mfg_final, aes(x = shift, y = defect_count, fill = shift)) +
  stat_summary(fun = "mean", geom = "bar") +
  labs(title = "Rata-rata Defect per Shift", x = "Shift", y = "Avg Defect") +
  theme_minimal()

# Q3: Apakah kelembapan tinggi (>70%) menyebabkan peningkatan cacat?
p3 <- ggplot(df_mfg_final, aes(x = humidity, y = defect_count)) +
  geom_jitter(alpha = 0.3, color = "darkgreen") +
  geom_smooth(method = "lm", color = "red") +
  labs(title = "Kelembapan vs Defect", x = "Humidity (%)", y = "Defect Count") +
  theme_minimal()

# Q4: Jalur produksi mana yang paling stabil (weight konsisten)?
p4 <- ggplot(df_mfg_final, aes(x = factor(production_line), y = weight, fill = factor(production_line))) +
  geom_violin(alpha = 0.5) +
  geom_boxplot(width = 0.1, color = "black") +
  labs(title = "Stabilitas Berat per Line", x = "Production Line", y = "Weight") +
  theme_minimal()

# Gabungkan semua grafik
grid.arrange(p1, p2, p3, p4, ncol = 2)
## `geom_smooth()` using formula = 'y ~ x'

Insight

1. Suhu vs Defect

Secara statistik, suhu tidak menjadi penyebab utama banyaknya cacat di pabrik ini. Baik suhunya panas maupun normal, jumlah cacatnya tetap berkisar di angka yang sama. Suhu di sini bukan “tersangka” utama kerusakan produk.

2. Rata-rata Defect per Shift

Ketiga shift (Afternoon, Morning, Night) memiliki tinggi batang yang hampir sama (berada di kisaran angka 2.0). Kualitas produksi sangat konsisten di semua waktu kerja. Tidak ada fenomena “shift malam lebih banyak error karena mengantuk” atau “shift siang lebih banyak defect karena panas”. Manajemen shift sudah berjalan sangat baik.

3. Kelembapan vs Defect

Kelembapan (Humidity) juga tidak mempengaruhi jumlah cacat. Mau udaranya lembap (70-80%) atau kering (40%), jumlah defect_count tidak otomatis naik.

4. Stabilitas Berat per Line

Gambar berbentuk “biola” ini menunjukkan sebaran berat produk di setiap jalur produksi (Line 1-5).

Line 1 & 2:

Bentuknya lebih panjang ke bawah dan punya banyak titik di bawah. Ini artinya Line 1 dan 2 kurang stabil.

Line 4 & 5:

Bentuknya lebih lebar dan pendek di area tengah (sekitar 500-505).Artinya: Line 4 dan 5 adalah jalur yang paling stabil. Mesin di sana sangat konsisten menjaga berat produk tetap di angka ideal.